GW2849 Weather Reports


Display with metric or nautical units.
time (UTC)temp
F
wind
direction
speed
MPH
gust
MPH
rain 1hr
in
rain 24hr
in
rain mn
in
humidity
%
barometer
mb
20260906055958 72 355 0.0 5.0 0.00 0.45 0.00 93 1013.7
20260906055757 72 338 1.0 5.0 0.00 0.45 0.00 93 1013.8
20260906055658 72 331 0.0 4.0 0.00 0.45 0.00 93 1013.8
20260906055557 72 22 0.0 4.0 0.00 0.45 0.00 93 1013.8
20260906055457 72 5 0.0 4.0 0.00 0.45 0.00 93 1013.8
20260906055359 72 24 3.0 4.0 0.00 0.45 0.00 93 1013.7
20260906055257 72 11 0.0 4.0 0.00 0.45 0.00 93 1013.8
20260906055057 72 5 2.0 4.0 0.00 0.45 0.00 93 1013.8
20260906054957 72 22 2.0 4.0 0.00 0.45 0.00 93 1013.8
20260906054857 72 9 0.0 4.0 0.00 0.45 0.00 93 1013.8
20260906054757 72 44 1.0 4.0 0.00 0.45 0.00 93 1013.8
20260906054701 72 67 1.0 4.0 0.00 0.45 0.00 93 1013.8
20260906054556 72 13 0.0 3.0 0.00 0.45 0.00 93 1013.8
20260906054458 72 341 0.0 3.0 0.00 0.45 0.00 93 1013.8
20260906054357 72 5 0.0 0.0 0.00 0.45 0.00 93 1013.8
20260906053958 72 343 0.0 0.0 0.00 0.45 0.00 93 1013.7
20260906053757 72 315 0.0 0.0 0.00 0.45 0.00 93 1013.7
20260906053656 72 343 0.0 0.0 0.00 0.45 0.00 93 1013.7
20260906053558 72 348 0.0 0.0 0.00 0.45 0.00 93 1013.7
20260906053457 72 355 0.0 0.0 0.00 0.45 0.00 93 1013.6
20260906053357 72 355 0.0 0.0 0.00 0.45 0.00 93 1013.7
20260906053259 72 355 0.0 0.0 0.00 0.45 0.00 93 1013.7
20260906053157 72 345 0.0 0.0 0.00 0.45 0.00 93 1013.7
20260906053057 72 5 0.0 0.0 0.00 0.45 0.00 93 1013.7
20260906052957 72 5 0.0 0.0 0.00 0.45 0.00 93 1013.7
20260906052857 72 336 0.0 0.0 0.00 0.45 0.00 93 1013.8
20260906052758 72 336 0.0 0.0 0.00 0.45 0.00 93 1013.8
20260906052659 72 336 0.0 0.0 0.00 0.45 0.00 93 1013.8
20260906052557 72 336 0.0 0.0 0.00 0.45 0.00 93 1013.8
20260906052458 72 336 0.0 0.0 0.00 0.45 0.00 93 1013.9
20260906052357 72 336 0.0 0.0 0.00 0.45 0.00 93 1013.8
20260906052258 72 336 0.0 0.0 0.00 0.45 0.00 93 1013.8
20260906052157 72 336 0.0 0.0 0.00 0.45 0.00 93 1013.8
20260906052058 72 336 0.0 0.0 0.00 0.45 0.00 93 1013.8
20260906051859 72 336 0.0 0.0 0.00 0.45 0.00 93 1013.9
20260906051757 72 336 0.0 0.0 0.00 0.45 0.00 93 1013.8
20260906051657 72 336 0.0 0.0 0.00 0.45 0.00 93 1013.8
20260906051558 72 336 0.0 0.0 0.00 0.45 0.00 93 1013.9
20260906051456 72 336 0.0 0.0 0.00 0.45 0.00 93 1013.9
20260906051358 72 336 0.0 0.0 0.00 0.45 0.00 93 1013.9
20260906051156 72 336 0.0 0.0 0.00 0.45 0.00 93 1013.8
20260906051057 72 336 0.0 0.0 0.00 0.45 0.00 93 1013.8
20260906050957 72 336 0.0 0.0 0.00 0.45 0.00 93 1013.9
20260906050857 72 336 0.0 0.0 0.00 0.45 0.00 93 1013.9
20260906050757 72 336 0.0 0.0 0.00 0.45 0.00 93 1013.8
20260906050657 72 336 0.0 0.0 0.00 0.45 0.00 93 1013.8
20260906050557 72 336 0.0 0.0 0.00 0.45 0.00 93 1013.7
20260906050457 72 5 0.0 0.0 0.00 0.45 0.00 93 1013.7
20260906050358 72 5 0.0 0.0 0.00 0.45 0.00 93 1013.7
20260906050258 72 5 0.0 0.0 0.00 0.45 0.00 93 1013.7
20260906050058 72 5 0.0 0.0 0.00 0.45 0.00 93 1013.6
20260906050000 72 360 0.0 0.0 0.00 0.45 0.00 93 1013.6
20260906045859 72 5 0.0 0.0 0.00 0.45 0.00 93 1013.5
20260906045758 72 5 0.0 1.0 0.00 0.45 0.00 93 1013.5
20260906045701 72 355 0.0 1.0 0.00 0.45 0.00 93 1013.5
20260906045558 72 355 0.0 2.0 0.00 0.45 0.00 93 1013.5
20260906045258 72 17 0.0 2.0 0.00 0.45 0.00 93 1013.4
20260906045158 72 27 0.0 2.0 0.00 0.45 0.00 93 1013.4
20260906044959 72 25 0.0 2.0 0.00 0.45 0.00 93 1013.5
20260906044859 72 25 0.0 2.0 0.00 0.45 0.00 93 1013.4
20260906044757 72 24 0.0 3.0 0.00 0.45 0.00 93 1013.3
20260906044659 72 5 1.0 3.0 0.00 0.45 0.00 93 1013.3
20260906044558 72 342 1.0 3.0 0.00 0.45 0.00 93 1013.3
20260906044459 72 334 2.0 3.0 0.00 0.45 0.00 93 1013.3
20260906044357 72 340 0.0 3.0 0.00 0.45 0.00 93 1013.3
20260906044300 72 355 1.0 3.0 0.00 0.45 0.00 93 1013.3
20260906044200 72 338 0.0 3.0 0.00 0.45 0.00 93 1013.2
20260906044058 72 338 1.0 3.0 0.00 0.45 0.00 93 1013.1
20260906043959 72 340 2.0 3.0 0.00 0.45 0.00 93 1013.1
20260906043859 72 355 2.0 3.0 0.00 0.45 0.00 93 1013.1
20260906043558 72 348 0.0 1.0 0.00 0.45 0.00 93 1013.1
20260906043459 72 355 0.0 0.0 0.00 0.45 0.00 93 1013.1
20260906043358 72 355 0.0 0.0 0.00 0.45 0.00 92 1013.1
20260906043258 72 355 0.0 0.0 0.00 0.45 0.00 92 1013.1
20260906043200 72 355 0.0 0.0 0.00 0.45 0.00 92 1013.1
20260906043100 72 355 0.0 0.0 0.00 0.45 0.00 92 1013.1
20260906042859 72 355 0.0 0.0 0.00 0.45 0.00 92 1013.1
20260906042759 72 355 0.0 0.0 0.00 0.45 0.00 92 1013.1
20260906042700 72 355 0.0 0.0 0.00 0.45 0.00 92 1013.1
20260906042600 72 355 0.0 0.0 0.00 0.45 0.00 92 1013.1
20260906042400 72 355 0.0 0.0 0.00 0.45 0.00 92 1013.1
20260906042259 72 355 0.0 0.0 0.00 0.45 0.00 92 1013.0
20260906042201 72 355 0.0 0.0 0.00 0.45 0.00 92 1013.0
20260906042100 72 355 0.0 0.0 0.00 0.45 0.00 92 1013.1
20260906041859 72 349 0.0 0.0 0.00 0.45 0.00 92 1013.1
20260906041759 72 349 0.0 0.0 0.00 0.45 0.00 92 1013.1
20260906041659 72 349 0.0 0.0 0.00 0.45 0.00 92 1013.1
20260906041559 72 349 0.0 0.0 0.00 0.45 0.00 92 1013.2
20260906041459 72 349 0.0 0.0 0.00 0.45 0.00 92 1013.2
20260906041300 72 349 0.0 0.0 0.00 0.45 0.00 92 1013.1
20260906041059 72 349 0.0 0.0 0.00 0.45 0.00 92 1013.2
20260906040959 72 349 0.0 0.0 0.00 0.45 0.00 92 1013.1
20260906040900 72 349 0.0 0.0 0.00 0.45 0.00 92 1013.1
20260906040759 72 349 0.0 0.0 0.00 0.45 0.00 92 1013.0
20260906040701 72 349 0.0 0.0 0.00 0.45 0.00 92 1013.0
20260906040559 72 349 0.0 0.0 0.00 0.45 0.00 92 1013.0
20260906040459 72 349 0.0 0.0 0.00 0.45 0.00 92 1013.0
20260906040301 72 349 0.0 0.0 0.00 0.45 0.00 92 1013.1
20260906040101 72 348 0.0 0.0 0.00 0.45 0.00 92 1013.0
20260906035959 72 349 0.0 0.0 0.00 0.45 0.45 92 1013.0
20260906035759 72 340 0.0 0.0 0.00 0.45 0.45 92 1013.0
20260906035703 72 355 0.0 0.0 0.00 0.45 0.45 92 1012.9
20260906035601 72 355 0.0 1.0 0.00 0.45 0.45 92 1013.0
20260906035501 72 355 0.0 1.0 0.00 0.45 0.45 92 1013.0
20260906035301 72 19 0.0 1.0 0.00 0.45 0.45 92 1013.1
20260906035159 72 21 0.0 1.0 0.00 0.45 0.45 92 1013.0
20260906035059 72 21 0.0 1.0 0.00 0.45 0.45 92 1013.0
20260906034958 72 21 0.0 1.0 0.00 0.45 0.45 92 1013.1
20260906034859 72 21 0.0 1.0 0.00 0.45 0.45 92 1013.1
20260906034759 72 21 0.0 1.0 0.00 0.45 0.45 92 1013.1
20260906034659 72 28 0.0 1.0 0.00 0.45 0.45 92 1013.0
20260906034559 72 28 0.0 1.0 0.00 0.45 0.45 92 1013.0
20260906034459 72 28 0.0 1.0 0.00 0.45 0.45 92 1013.0
20260906034359 72 28 0.0 1.0 0.00 0.45 0.45 92 1012.9
20260906034300 72 28 0.0 1.0 0.00 0.45 0.45 92 1013.0
20260906034159 72 28 0.0 1.0 0.00 0.45 0.45 92 1013.0
20260906034101 72 28 0.0 1.0 0.00 0.45 0.45 92 1013.0
20260906033859 72 28 0.0 1.0 0.00 0.45 0.45 92 1012.9
20260906033759 72 28 0.0 1.0 0.00 0.45 0.45 92 1012.9
20260906033559 72 28 0.0 1.0 0.00 0.45 0.45 92 1012.9
20260906033501 72 28 0.0 2.0 0.00 0.45 0.45 92 1012.9
20260906033359 72 28 0.0 2.0 0.00 0.45 0.45 92 1012.9
20260906033301 72 28 0.0 2.0 0.00 0.45 0.45 92 1012.8
20260906033159 72 28 0.0 2.0 0.00 0.45 0.45 92 1012.9
20260906033059 72 28 0.0 2.0 0.00 0.45 0.45 92 1012.9
20260906032959 72 28 0.0 2.0 0.00 0.45 0.45 92 1013.0
20260906032859 72 28 1.0 2.0 0.00 0.45 0.45 92 1012.9
20260906032759 72 28 0.0 2.0 0.00 0.45 0.45 92 1012.9
20260906032701 72 28 0.0 2.0 0.00 0.45 0.45 92 1013.0
20260906032559 72 28 0.0 2.0 0.00 0.45 0.45 92 1013.0
20260906032459 72 46 0.0 2.0 0.00 0.45 0.45 91 1013.0
20260906032359 72 46 0.0 2.0 0.00 0.45 0.45 92 1013.0
20260906032301 72 46 1.0 2.0 0.00 0.45 0.45 91 1013.0
20260906032059 72 31 1.0 2.0 0.00 0.45 0.45 91 1013.0
20260906031959 72 31 0.0 2.0 0.00 0.45 0.45 91 1013.0
20260906031859 72 31 0.0 3.0 0.00 0.45 0.45 91 1013.0
20260906031658 72 30 0.0 3.0 0.00 0.45 0.45 91 1013.0
20260906031601 72 30 0.0 3.0 0.00 0.45 0.45 91 1013.0
20260906031501 72 30 0.0 3.0 0.00 0.45 0.45 91 1013.0
20260906031359 72 30 1.0 3.0 0.00 0.45 0.45 91 1013.0
20260906031158 72 19 1.0 4.0 0.00 0.45 0.45 91 1012.9
20260906031101 72 19 2.0 4.0 0.00 0.45 0.45 91 1013.0
20260906030959 72 355 2.0 4.0 0.00 0.45 0.45 91 1013.0
20260906030902 72 11 1.0 4.0 0.00 0.45 0.45 91 1012.9
20260906030759 72 355 2.0 4.0 0.00 0.45 0.45 91 1012.8
20260906030659 72 5 1.0 4.0 0.00 0.45 0.45 91 1012.9
20260906030559 72 360 0.0 4.0 0.00 0.45 0.45 91 1012.9
20260906030359 72 360 0.0 4.0 0.00 0.45 0.45 91 1012.9
20260906030300 72 5 4.0 4.0 0.00 0.45 0.45 91 1012.9
20260906030202 72 346 0.0 3.0 0.00 0.45 0.45 91 1012.9
20260906030000 72 103 0.0 6.0 0.00 0.45 0.45 91 1012.9
20260906025901 72 29 0.0 6.0 0.00 0.45 0.45 91 1013.0
20260906025800 73 38 1.0 6.0 0.00 0.45 0.45 91 1013.0
20260906025659 73 49 0.0 6.0 0.00 0.45 0.45 91 1013.0
20260906025459 73 340 0.0 6.0 0.00 0.45 0.45 91 1012.8
20260906025359 73 5 2.0 6.0 0.00 0.45 0.45 91 1012.8
20260906025300 73 342 1.0 6.0 0.00 0.45 0.45 91 1012.8
20260906025059 73 49 2.0 6.0 0.00 0.45 0.45 92 1012.8
20260906024959 73 346 0.0 3.0 0.00 0.45 0.45 92 1012.8
20260906024759 73 355 0.0 3.0 0.00 0.45 0.45 92 1012.8
20260906024659 73 355 1.0 3.0 0.00 0.45 0.45 92 1012.8
20260906024459 73 325 1.0 3.0 0.00 0.45 0.45 92 1012.8
20260906024400 73 38 0.0 3.0 0.00 0.45 0.45 92 1012.7
20260906024259 73 36 2.0 3.0 0.00 0.45 0.45 92 1012.7
20260906024159 73 21 3.0 3.0 0.00 0.45 0.45 92 1012.7
20260906024059 73 360 2.0 2.0 0.00 0.45 0.45 92 1012.7
20260906023959 73 19 1.0 2.0 0.00 0.45 0.45 92 1012.8
20260906023859 73 19 1.0 2.0 0.00 0.45 0.45 92 1012.8
20260906023801 73 344 0.0 0.0 0.00 0.45 0.45 92 1012.8
20260906023658 73 335 0.0 0.0 0.00 0.45 0.45 92 1012.9
20260906023559 73 5 0.0 0.0 0.00 0.45 0.45 92 1012.8
20260906023459 73 33 0.0 0.0 0.00 0.45 0.45 92 1012.9
20260906023400 73 5 0.0 0.0 0.00 0.45 0.45 92 1012.9
20260906023300 73 31 0.0 0.0 0.00 0.45 0.45 92 1012.9
20260906023159 73 42 0.0 0.0 0.00 0.45 0.45 92 1012.9
20260906023058 73 13 0.0 0.0 0.00 0.45 0.45 92 1013.0
20260906022859 73 13 0.0 0.0 0.00 0.45 0.45 92 1013.0
20260906022758 73 13 0.0 0.0 0.00 0.45 0.45 92 1012.9
20260906022559 73 13 0.0 0.0 0.00 0.45 0.45 92 1013.0
20260906022500 73 13 0.0 2.0 0.00 0.45 0.45 92 1013.0
20260906022359 73 13 0.0 2.0 0.00 0.45 0.45 92 1013.0
20260906022259 73 9 0.0 2.0 0.00 0.45 0.45 92 1012.9
20260906022158 73 9 0.0 2.0 0.00 0.45 0.45 92 1013.0
20260906022059 73 9 0.0 2.0 0.00 0.45 0.45 92 1013.0
20260906022003 73 5 0.0 2.0 0.00 0.45 0.45 92 1013.0
20260906021759 73 14 0.0 3.0 0.00 0.45 0.45 92 1013.0
20260906021700 73 14 0.0 3.0 0.00 0.45 0.45 92 1013.0
20260906021559 73 328 0.0 3.0 0.00 0.45 0.45 92 1013.1
20260906021459 73 5 0.0 3.0 0.00 0.45 0.45 92 1013.0
20260906021359 73 5 0.0 3.0 0.00 0.45 0.45 91 1013.1
20260906021300 73 5 0.0 3.0 0.00 0.45 0.45 91 1013.1
20260906021159 73 5 0.0 3.0 0.00 0.45 0.45 91 1013.1
20260906021059 73 5 0.0 3.0 0.00 0.45 0.45 91 1013.1
20260906020959 73 5 2.0 3.0 0.00 0.45 0.45 91 1013.0
20260906020901 73 346 1.0 3.0 0.00 0.45 0.45 91 1013.0
20260906020759 74 346 2.0 3.0 0.00 0.45 0.45 91 1013.0
20260906020659 73 32 2.0 3.0 0.00 0.45 0.45 91 1013.0
20260906020559 74 355 1.0 1.0 0.00 0.45 0.45 91 1013.0
20260906020358 74 5 0.0 0.0 0.01 0.45 0.45 92 1012.9
20260906020259 74 5 0.0 0.0 0.01 0.45 0.45 92 1013.0
20260906020158 74 5 0.0 0.0 0.01 0.45 0.45 92 1013.0
20260906020100 74 5 0.0 0.0 0.01 0.45 0.45 92 1012.9
20260906020000 74 5 0.0 0.0 0.01 0.45 0.45 92 1012.9
20260906015800 74 22 0.0 0.0 0.01 0.45 0.45 92 1013.0
20260906015701 74 336 0.0 0.0 0.01 0.45 0.45 92 1013.0
20260906015359 74 5 0.0 0.0 0.02 0.45 0.45 92 1012.9
20260906015259 74 5 0.0 0.0 0.02 0.45 0.45 92 1013.0
20260906015159 74 5 0.0 0.0 0.02 0.45 0.45 91 1012.9
20260906015059 74 5 0.0 0.0 0.03 0.45 0.45 91 1012.9
20260906014959 74 5 0.0 0.0 0.03 0.45 0.45 91 1012.9
20260906014900 74 5 0.0 0.0 0.03 0.45 0.45 91 1012.9
20260906014559 74 10 0.0 0.0 0.03 0.45 0.45 91 1013.0
20260906014459 74 360 0.0 0.0 0.04 0.45 0.45 91 1013.0
20260906014359 74 355 0.0 0.0 0.04 0.45 0.45 91 1013.0
20260906014300 74 355 0.0 0.0 0.04 0.45 0.45 91 1013.0
20260906014159 74 71 0.0 0.0 0.04 0.45 0.45 91 1012.9
20260906014101 74 71 0.0 0.0 0.05 0.45 0.45 92 1012.9
20260906014000 74 111 0.0 0.0 0.05 0.45 0.45 91 1012.9
20260906013901 74 113 0.0 0.0 0.05 0.45 0.45 91 1013.0
20260906013758 74 180 0.0 0.0 0.05 0.45 0.45 91 1013.0
20260906013659 74 180 0.0 0.0 0.06 0.45 0.45 91 1013.0
20260906013600 74 180 0.0 0.0 0.06 0.45 0.45 91 1013.0
20260906013500 74 180 0.0 0.0 0.06 0.45 0.45 91 1013.0
20260906013258 74 180 0.0 0.0 0.07 0.45 0.45 91 1012.9
20260906013159 74 180 0.0 0.0 0.07 0.45 0.45 91 1013.0
20260906013103 74 180 0.0 0.0 0.07 0.45 0.45 91 1012.9
20260906013000 74 180 0.0 0.0 0.08 0.45 0.45 91 1012.9
20260906012759 74 180 0.0 0.0 0.08 0.45 0.45 91 1012.9
20260906012659 74 180 0.0 0.0 0.09 0.45 0.45 91 1012.9
20260906012559 74 180 0.0 0.0 0.09 0.45 0.45 90 1013.0
20260906012500 74 180 0.0 0.0 0.10 0.45 0.45 90 1013.1
20260906012359 74 180 0.0 0.0 0.10 0.45 0.45 90 1013.1
20260906012301 74 180 0.0 0.0 0.10 0.45 0.45 90 1013.1
20260906011958 74 180 0.0 0.0 0.12 0.45 0.45 90 1013.0
20260906011659 74 180 0.0 0.0 0.13 0.45 0.45 90 1012.9
20260906011559 74 180 0.0 0.0 0.14 0.45 0.45 90 1012.9
20260906011459 74 180 0.0 0.0 0.14 0.45 0.45 90 1012.8
20260906011401 74 180 0.0 0.0 0.15 0.45 0.45 90 1012.9
20260906011259 74 180 0.0 0.0 0.16 0.45 0.45 90 1012.9
20260906011159 74 180 0.0 0.0 0.16 0.45 0.45 90 1012.8
20260906011059 74 180 0.0 0.0 0.17 0.45 0.45 90 1012.7
20260906010959 74 180 0.0 0.0 0.17 0.45 0.45 90 1012.8
20260906010759 74 180 0.0 0.0 0.19 0.45 0.45 90 1012.7
20260906010700 74 180 0.0 0.0 0.20 0.45 0.45 90 1012.7
20260906010559 74 180 0.0 0.0 0.20 0.45 0.45 90 1012.8
20260906010459 74 180 0.0 0.0 0.20 0.44 0.44 90 1012.8
20260906010401 74 180 0.0 0.0 0.21 0.44 0.44 90 1012.7
20260906010300 74 180 0.0 0.0 0.22 0.44 0.44 90 1012.8
20260906010159 74 180 0.0 0.0 0.23 0.44 0.44 90 1012.7
20260906005959 74 184 0.0 0.0 0.25 0.44 0.44 90 1012.8
20260906005900 74 184 0.0 0.0 0.26 0.44 0.44 90 1012.8
20260906005759 74 153 0.0 0.0 0.27 0.44 0.44 90 1012.9
20260906005701 74 232 0.0 0.0 0.28 0.44 0.44 90 1012.8
20260906005600 74 232 0.0 0.0 0.28 0.43 0.43 90 1012.7
20260906005459 74 232 0.0 0.0 0.29 0.43 0.43 90 1012.6
20260906005400 74 232 0.0 0.0 0.29 0.43 0.43 90 1012.7
20260906005259 75 232 0.0 0.0 0.29 0.43 0.43 90 1012.7
20260906005158 75 238 0.0 0.0 0.29 0.43 0.43 90 1012.7
20260906005100 75 238 0.0 0.0 0.28 0.42 0.42 90 1012.6
20260906004858 75 237 0.0 0.0 0.28 0.42 0.42 90 1012.8
20260906004759 75 188 0.0 0.0 0.28 0.42 0.42 90 1013.0
20260906004659 75 188 0.0 0.0 0.28 0.42 0.42 90 1013.0
20260906004500 75 333 0.0 0.0 0.27 0.41 0.41 90 1013.0
20260906004259 75 345 0.0 0.0 0.27 0.41 0.41 90 1012.8
20260906004159 74 198 0.0 0.0 0.27 0.41 0.41 90 1012.9
20260906004058 75 198 0.0 0.0 0.26 0.40 0.40 89 1012.7
20260906003959 74 198 0.0 0.0 0.26 0.40 0.40 89 1012.7
20260906003859 75 198 0.0 0.0 0.26 0.40 0.40 89 1012.7
20260906003700 75 198 0.0 0.0 0.25 0.39 0.39 89 1012.7
20260906003559 75 360 0.0 0.0 0.25 0.39 0.39 89 1012.7
20260906003459 75 360 0.0 0.0 0.25 0.39 0.39 89 1012.6
20260906003405 75 360 0.0 3.0 0.25 0.39 0.39 88 1012.5
20260906003259 75 360 0.0 3.0 0.24 0.38 0.38 88 1012.4
20260906003200 75 360 0.0 3.0 0.24 0.38 0.38 88 1012.3
20260906003100 75 360 0.0 3.0 0.24 0.38 0.38 88 1012.3
20260906002859 75 360 0.0 3.0 0.23 0.37 0.37 88 1012.2
20260906002759 75 360 0.0 3.0 0.23 0.37 0.37 88 1012.2
20260906002700 75 360 0.0 3.0 0.22 0.36 0.36 88 1012.3
20260906002459 75 9 0.0 3.0 0.21 0.35 0.35 87 1012.2
20260906002358 75 5 1.0 3.0 0.21 0.35 0.35 87 1012.2
20260906002259 75 5 1.0 3.0 0.21 0.35 0.35 87 1012.2
20260906002159 75 355 0.0 1.0 0.20 0.34 0.34 87 1012.3
20260906002059 75 15 0.0 1.0 0.20 0.34 0.34 87 1012.3
20260906001959 75 9 0.0 1.0 0.19 0.33 0.33 87 1012.3
20260906001859 75 5 0.0 6.0 0.19 0.33 0.33 86 1012.3
20260906001659 75 117 0.0 6.0 0.18 0.32 0.32 86 1012.2
20260906001559 75 117 0.0 6.0 0.17 0.31 0.31 86 1012.1
20260906001459 75 117 0.0 6.0 0.17 0.31 0.31 85 1012.1
20260906001359 75 115 0.0 6.0 0.16 0.30 0.30 85 1012.0
20260906001300 75 63 0.0 6.0 0.15 0.29 0.29 85 1012.0
20260906001159 75 107 0.0 6.0 0.15 0.29 0.29 84 1012.0
20260906001059 75 113 0.0 8.0 0.14 0.28 0.28 84 1011.9
20260906001002 76 163 6.0 8.0 0.14 0.28 0.28 84 1012.0
20260906000859 76 156 1.0 8.0 0.13 0.27 0.27 84 1012.0
20260906000800 76 151 2.0 8.0 0.12 0.26 0.26 83 1012.0
20260906000658 76 156 0.0 8.0 0.11 0.25 0.25 82 1012.1
20260906000604 76 162 2.0 10.0 0.11 0.25 0.25 82 1012.0
20260906000500 77 317 0.0 14.0 0.10 0.24 0.24 81 1012.0
20260906000403 77 342 0.0 16.0 0.09 0.23 0.23 81 1011.9
20260906000259 77 145 2.0 16.0 0.08 0.22 0.22 81 1011.8
20260906000200 77 340 6.0 16.0 0.07 0.21 0.21 80 1011.9
20260906000000 78 304 1.0 16.0 0.05 0.19 0.19 80 1012.0
20260905235901 79 154 1.0 16.0 0.04 0.18 0.18 79 1012.2
20260905235801 79 326 3.0 16.0 0.03 0.17 0.17 78 1012.3
20260905235659 80 85 9.0 16.0 0.02 0.16 0.16 78 1012.4
20260905235558 81 350 6.0 16.0 0.01 0.15 0.15 77 1012.3
20260905235459 81 15 10.0 14.0 0.00 0.14 0.14 76 1012.2
20260905235359 82 5 8.0 14.0 0.00 0.14 0.14 75 1012.1
20260905235200 82 339 6.0 13.0 0.00 0.14 0.14 74 1012.0
20260905235100 82 54 3.0 12.0 0.00 0.14 0.14 74 1012.0
20260905234959 82 317 3.0 10.0 0.00 0.14 0.14 74 1012.0
20260905234800 82 53 6.0 9.0 0.00 0.14 0.14 73 1011.6
20260905234700 83 344 2.0 3.0 0.00 0.14 0.14 73 1011.6
20260905234559 83 5 2.0 3.0 0.00 0.14 0.14 73 1011.6
20260905234458 83 107 0.0 1.0 0.00 0.14 0.14 73 1011.4
20260905234402 83 67 0.0 1.0 0.00 0.14 0.14 73 1011.5
20260905234259 83 130 0.0 3.0 0.00 0.14 0.14 73 1011.7
20260905234200 83 148 0.0 3.0 0.00 0.14 0.14 73 1011.8
20260905234059 83 100 0.0 3.0 0.00 0.14 0.14 73 1011.8
20260905233959 83 130 0.0 3.0 0.00 0.14 0.14 73 1011.8
20260905233859 83 102 0.0 3.0 0.00 0.14 0.14 73 1011.8
20260905233759 83 152 0.0 3.0 0.00 0.14 0.14 73 1011.8
20260905233700 83 94 0.0 3.0 0.00 0.14 0.14 73 1011.7
20260905233601 83 151 0.0 3.0 0.00 0.14 0.14 72 1011.8
20260905233459 83 130 0.0 3.0 0.00 0.14 0.14 72 1011.8
20260905233359 83 155 2.0 5.0 0.00 0.14 0.14 72 1011.8
20260905233302 83 154 0.0 5.0 0.00 0.14 0.14 72 1011.8
20260905233158 84 80 0.0 5.0 0.00 0.14 0.14 72 1011.8
20260905233059 84 194 2.0 5.0 0.00 0.14 0.14 72 1012.0
20260905233001 84 128 0.0 5.0 0.00 0.14 0.14 72 1011.9
20260905232900 84 169 0.0 8.0 0.00 0.14 0.14 72 1012.0
20260905232801 84 172 0.0 8.0 0.00 0.14 0.14 72 1012.0
20260905232659 84 70 2.0 8.0 0.00 0.14 0.14 72 1012.0
20260905232559 84 36 1.0 8.0 0.00 0.14 0.14 72 1011.9
20260905232501 84 192 2.0 8.0 0.00 0.14 0.14 72 1011.9
20260905232359 84 136 0.0 8.0 0.00 0.14 0.14 72 1011.8
20260905232105 85 169 2.0 8.0 0.00 0.14 0.14 71 1011.7
20260905231706 86 158 0.0 7.0 0.00 0.14 0.14 71 1012.0
20260905231607 86 107 0.0 7.0 0.00 0.14 0.14 71 1012.1
20260905231509 86 154 0.0 7.0 0.00 0.14 0.14 71 1012.1
20260905231359 86 173 0.0 7.0 0.00 0.14 0.14 71 1012.3
20260905231300 86 148 0.0 7.0 0.00 0.14 0.14 70 1012.2
20260905231059 86 65 0.0 7.0 0.00 0.14 0.14 70 1012.1
20260905231009 86 93 0.0 7.0 0.00 0.14 0.14 70 1012.1
20260905230812 87 154 2.0 7.0 0.00 0.14 0.14 69 1011.9
20260905230600 87 230 2.0 7.0 0.00 0.14 0.14 68 1011.9
20260905230400 87 82 0.0 0.0 0.00 0.14 0.14 67 1011.8
20260905230300 87 202 0.0 0.0 0.00 0.14 0.14 66 1011.8
20260905230159 87 105 0.0 0.0 0.00 0.14 0.14 66 1011.7
20260905230059 87 105 0.0 0.0 0.00 0.14 0.14 66 1011.7
20260905230005 87 105 0.0 0.0 0.00 0.14 0.14 66 1011.6
20260905225900 87 105 0.0 0.0 0.00 0.14 0.14 66 1011.7
20260905225801 87 26 0.0 0.0 0.00 0.14 0.14 66 1011.6
20260905225701 87 349 0.0 0.0 0.00 0.14 0.14 66 1011.7
20260905225559 88 349 0.0 0.0 0.00 0.14 0.14 66 1011.6
20260905225504 88 349 0.0 0.0 0.00 0.14 0.14 65 1011.5
20260905225401 88 349 0.0 0.0 0.00 0.14 0.14 65 1011.4
20260905225305 88 349 0.0 0.0 0.00 0.14 0.14 65 1011.5
20260905225211 88 349 0.0 0.0 0.00 0.14 0.14 65 1011.5
20260905225105 88 21 0.0 0.0 0.00 0.14 0.14 65 1011.5
20260905224858 88 18 0.0 0.0 0.00 0.14 0.14 65 1011.5
20260905224759 88 18 0.0 0.0 0.00 0.14 0.14 66 1011.6
20260905224700 88 18 0.0 0.0 0.00 0.14 0.14 66 1011.5
20260905224559 88 18 0.0 0.0 0.00 0.14 0.14 66 1011.5
20260905224500 88 18 0.0 0.0 0.00 0.14 0.14 64 1011.6
20260905224259 88 18 0.0 0.0 0.00 0.14 0.14 66 1011.6
20260905224159 88 18 0.0 0.0 0.00 0.14 0.14 65 1011.7
20260905224059 88 18 0.0 0.0 0.00 0.14 0.14 65 1011.7
20260905223858 88 18 0.0 0.0 0.00 0.14 0.14 64 1011.7
20260905223759 88 18 0.0 0.0 0.00 0.14 0.14 64 1011.8
20260905223700 88 18 0.0 0.0 0.00 0.14 0.14 63 1011.8
20260905223601 88 355 0.0 0.0 0.00 0.14 0.14 64 1011.8
20260905223359 88 355 0.0 0.0 0.00 0.14 0.14 64 1011.7
20260905223300 88 355 0.0 0.0 0.00 0.14 0.14 63 1011.7
20260905223201 88 355 0.0 0.0 0.00 0.14 0.14 63 1011.6
20260905223001 88 13 0.0 0.0 0.00 0.14 0.14 63 1011.6
20260905222900 88 355 0.0 0.0 0.00 0.14 0.14 63 1011.6
20260905222800 89 348 0.0 0.0 0.00 0.14 0.14 64 1011.6
20260905222702 89 348 0.0 0.0 0.00 0.14 0.14 64 1011.6
20260905222600 89 348 0.0 0.0 0.00 0.14 0.14 64 1011.6
20260905222500 89 348 0.0 1.0 0.00 0.14 0.14 63 1011.7
20260905222401 89 348 0.0 1.0 0.00 0.14 0.14 63 1011.7
20260905222200 89 348 0.0 1.0 0.00 0.14 0.14 63 1011.7
20260905222100 89 355 0.0 4.0 0.00 0.14 0.14 63 1011.8
20260905222001 89 349 0.0 4.0 0.00 0.14 0.14 63 1011.8
20260905221900 89 348 0.0 4.0 0.00 0.14 0.14 62 1011.7
20260905221800 89 349 0.0 4.0 0.00 0.14 0.14 62 1011.7
20260905221701 89 348 0.0 4.0 0.00 0.14 0.14 62 1011.7
20260905221501 89 332 0.0 4.0 0.00 0.14 0.14 62 1011.7
20260905221400 89 332 0.0 4.0 0.00 0.14 0.14 63 1011.8
20260905221059 90 338 2.0 4.0 0.00 0.14 0.14 62 1011.7
20260905221002 90 360 0.0 4.0 0.00 0.14 0.14 62 1011.7
20260905220900 90 344 1.0 4.0 0.00 0.14 0.14 61 1011.7
20260905220800 90 344 0.0 4.0 0.00 0.14 0.14 62 1011.6
20260905220700 90 344 0.0 4.0 0.00 0.14 0.14 62 1011.7
20260905220600 90 344 0.0 4.0 0.00 0.14 0.14 61 1011.7
20260905220501 90 344 0.0 4.0 0.00 0.14 0.14 61 1011.7
20260905220400 90 344 1.0 4.0 0.00 0.14 0.14 61 1011.6
20260905220300 90 11 2.0 4.0 0.00 0.14 0.14 60 1011.6
20260905220200 90 14 1.0 4.0 0.00 0.14 0.14 60 1011.6
20260905215900 91 345 0.0 3.0 0.00 0.42 0.14 61 1011.4
20260905215800 91 345 1.0 3.0 0.00 0.42 0.14 61 1011.4
20260905215700 91 345 1.0 3.0 0.00 0.42 0.14 60 1011.4
20260905215559 91 342 0.0 3.0 0.00 0.42 0.14 60 1011.4
20260905215401 91 346 2.0 3.0 0.00 0.42 0.14 60 1011.4
20260905215259 91 326 2.0 2.0 0.00 0.42 0.14 60 1011.3
20260905215201 91 74 0.0 2.0 0.00 0.42 0.14 61 1011.3
20260905215059 91 346 0.0 2.0 0.00 0.42 0.14 60 1011.4
20260905214959 91 340 0.0 2.0 0.00 0.42 0.14 60 1011.4
20260905214859 91 333 1.0 2.0 0.00 0.42 0.14 60 1011.3
20260905214759 91 17 0.0 2.0 0.00 0.42 0.14 59 1011.3
20260905214559 92 360 0.0 3.0 0.00 0.42 0.14 59 1011.3
20260905214359 92 355 0.0 3.0 0.00 0.42 0.14 60 1011.3
20260905214259 92 339 1.0 3.0 0.00 0.42 0.14 59 1011.3
20260905214159 92 339 2.0 3.0 0.00 0.42 0.14 61 1011.3
20260905214103 92 342 1.0 3.0 0.00 0.42 0.14 60 1011.4
20260905213859 92 344 1.0 3.0 0.00 0.42 0.14 60 1011.3
20260905213759 92 348 3.0 3.0 0.00 0.42 0.14 59 1011.3
20260905213659 92 5 3.0 3.0 0.00 0.42 0.14 59 1011.3
20260905213600 92 335 3.0 3.0 0.00 0.42 0.14 60 1011.3
20260905213500 92 336 0.0 3.0 0.00 0.42 0.14 60 1011.2
20260905213359 92 348 0.0 4.0 0.00 0.42 0.14 60 1011.3
20260905213259 92 344 0.0 9.0 0.00 0.42 0.14 61 1011.3
20260905213159 92 24 0.0 9.0 0.00 0.42 0.14 59 1011.3
20260905213100 92 338 1.0 9.0 0.00 0.42 0.14 59 1011.3
20260905213001 91 61 1.0 9.0 0.00 0.42 0.14 60 1011.3
20260905212901 91 304 0.0 9.0 0.00 0.42 0.14 60 1011.3
20260905212759 91 44 0.0 9.0 0.00 0.42 0.14 60 1011.4
20260905212701 91 355 2.0 9.0 0.00 0.42 0.14 60 1011.4
20260905212600 91 284 1.0 9.0 0.00 0.42 0.14 60 1011.3
20260905212459 91 331 4.0 9.0 0.00 0.42 0.14 61 1011.3
20260905212359 91 46 5.0 6.0 0.00 0.42 0.14 60 1011.4
20260905212300 91 5 1.0 6.0 0.00 0.42 0.14 62 1011.4
20260905212159 91 349 1.0 6.0 0.00 0.42 0.14 62 1011.4
20260905212001 90 343 0.0 6.0 0.00 0.42 0.14 61 1011.4
20260905211800 90 14 4.0 6.0 0.00 0.42 0.14 61 1011.4
20260905211700 90 11 4.0 6.0 0.00 0.42 0.14 62 1011.5
20260905211559 90 317 0.0 4.0 0.00 0.42 0.14 63 1011.5
20260905211500 90 321 0.0 4.0 0.00 0.42 0.14 62 1011.5
20260905211359 90 321 0.0 4.0 0.00 0.42 0.14 62 1011.5
20260905211259 90 308 1.0 4.0 0.00 0.42 0.14 62 1011.5
20260905211159 90 19 2.0 4.0 0.00 0.42 0.14 61 1011.5
20260905211100 90 21 1.0 4.0 0.00 0.42 0.14 64 1011.5
20260905210959 90 355 2.0 4.0 0.00 0.42 0.14 63 1011.5
20260905210901 89 52 1.0 3.0 0.00 0.42 0.14 62 1011.5
20260905210600 89 345 0.0 3.0 0.00 0.42 0.14 63 1011.6
20260905210501 89 345 0.0 3.0 0.00 0.42 0.14 62 1011.6
20260905210401 89 344 0.0 3.0 0.00 0.42 0.14 62 1011.6
20260905210300 89 343 0.0 3.0 0.00 0.42 0.14 62 1011.6
20260905210159 89 346 0.0 4.0 0.00 0.42 0.14 63 1011.6
20260905210001 89 23 1.0 6.0 0.00 0.42 0.14 62 1011.7
20260905205901 89 18 0.0 6.0 0.00 0.42 0.14 62 1011.6
20260905205800 90 360 0.0 6.0 0.00 0.42 0.14 63 1011.7
20260905205659 90 337 0.0 6.0 0.00 0.42 0.14 62 1011.7
20260905205600 90 26 0.0 6.0 0.00 0.42 0.14 61 1011.7
20260905205459 90 360 0.0 6.0 0.00 0.42 0.14 61 1011.7
20260905205400 90 342 1.0 6.0 0.00 0.42 0.14 60 1011.7
20260905205259 90 78 3.0 6.0 0.00 0.42 0.14 61 1011.7
20260905205159 90 19 1.0 6.0 0.00 0.42 0.14 60 1011.7
20260905205059 91 11 3.0 6.0 0.00 0.42 0.14 60 1011.7
20260905204800 92 343 2.0 6.0 0.00 0.42 0.14 59 1011.7
20260905204659 92 11 1.0 6.0 0.00 0.42 0.14 58 1011.8
20260905204559 92 74 0.0 6.0 0.00 0.42 0.14 58 1011.8
20260905204501 92 51 3.0 9.0 0.00 0.42 0.14 58 1011.8
20260905204359 93 348 4.0 9.0 0.00 0.42 0.14 57 1011.8
20260905204300 93 32 5.0 9.0 0.00 0.42 0.14 57 1011.8
20260905204159 93 11 1.0 9.0 0.00 0.42 0.14 57 1011.8
20260905204059 93 37 1.0 9.0 0.00 0.42 0.14 57 1011.9
20260905204000 94 36 0.0 9.0 0.00 0.42 0.14 56 1011.8
20260905203859 94 343 2.0 9.0 0.00 0.42 0.14 57 1011.9
20260905203800 94 345 2.0 9.0 0.00 0.42 0.14 59 1011.8
20260905203700 94 342 0.0 9.0 0.00 0.42 0.14 58 1011.8
20260905203601 94 18 4.0 5.0 0.00 0.42 0.14 56 1011.8
20260905203459 94 342 1.0 5.0 0.00 0.42 0.14 56 1011.9
20260905203400 94 331 0.0 5.0 0.00 0.42 0.14 54 1011.8
20260905203300 94 338 2.0 5.0 0.00 0.42 0.14 55 1011.8
20260905203100 94 21 1.0 3.0 0.00 0.42 0.14 57 1011.8
20260905203001 94 5 0.0 3.0 0.00 0.42 0.14 55 1011.8
20260905202701 94 336 0.0 3.0 0.00 0.42 0.14 55 1011.8
20260905202600 94 130 0.0 3.0 0.00 0.42 0.14 57 1011.8
20260905202500 93 333 0.0 3.0 0.00 0.42 0.14 56 1011.9
20260905202400 93 355 0.0 3.0 0.00 0.42 0.14 57 1011.9
20260905202300 93 355 0.0 3.0 0.00 0.42 0.14 56 1011.9
20260905202159 93 355 0.0 3.0 0.00 0.42 0.14 55 1011.9
20260905202100 93 140 0.0 3.0 0.00 0.42 0.14 55 1012.0
20260905202000 93 144 0.0 3.0 0.00 0.42 0.14 55 1011.9
20260905201900 93 173 2.0 3.0 0.00 0.42 0.14 56 1011.9
20260905201759 93 355 1.0 2.0 0.00 0.42 0.14 56 1011.9
20260905201659 93 300 1.0 3.0 0.00 0.42 0.14 57 1011.9
20260905201559 93 360 0.0 3.0 0.00 0.42 0.14 56 1011.9
20260905201459 93 189 0.0 3.0 0.00 0.42 0.14 56 1011.9
20260905201400 93 338 0.0 3.0 0.00 0.42 0.14 56 1012.0
20260905201300 93 340 0.0 3.0 0.00 0.42 0.14 55 1011.9
20260905201059 93 180 0.0 3.0 0.00 0.42 0.14 53 1012.0
20260905200859 93 144 1.0 4.0 0.00 0.42 0.14 55 1012.1
20260905200800 93 190 1.0 4.0 0.00 0.42 0.14 56 1012.1
20260905200659 93 224 2.0 4.0 0.00 0.42 0.14 57 1012.1
20260905200459 93 355 1.0 6.0 0.00 0.42 0.14 56 1012.0
20260905200400 93 355 1.0 6.0 0.00 0.42 0.14 56 1012.0
20260905200300 93 13 0.0 6.0 0.00 0.42 0.14 56 1012.1
20260905200159 93 14 0.0 6.0 0.00 0.42 0.14 55 1012.1
20260905200059 93 343 3.0 6.0 0.00 0.42 0.14 57 1012.2
20260905200002 93 327 1.0 6.0 0.00 0.42 0.14 56 1012.2
20260905195859 93 332 4.0 6.0 0.00 0.42 0.14 54 1012.2
20260905195800 93 360 2.0 7.0 0.00 0.42 0.14 54 1012.1
20260905195701 93 192 0.0 7.0 0.00 0.42 0.14 53 1012.1
20260905195600 93 196 2.0 3.0 0.00 0.42 0.14 54 1012.1
20260905195459 93 175 2.0 3.0 0.00 0.42 0.14 53 1012.1
20260905195359 93 148 1.0 2.0 0.00 0.42 0.14 56 1012.1
20260905195200 93 199 0.0 3.0 0.00 0.42 0.14 54 1012.2
20260905195100 93 163 0.0 3.0 0.00 0.42 0.14 54 1012.2
20260905195002 93 5 1.0 3.0 0.00 0.42 0.14 55 1012.2
20260905194858 93 188 1.0 6.0 0.00 0.42 0.14 55 1012.3
20260905194800 93 234 0.0 6.0 0.00 0.42 0.14 55 1012.2
20260905194659 93 11 0.0 6.0 0.00 0.42 0.14 57 1012.3
20260905194559 93 62 0.0 6.0 0.00 0.42 0.14 55 1012.3
20260905194459 93 18 1.0 6.0 0.00 0.42 0.14 55 1012.3
20260905194359 93 273 0.0 6.0 0.00 0.42 0.14 55 1012.3
20260905194301 93 238 1.0 6.0 0.00 0.42 0.14 55 1012.3
20260905194158 93 343 2.0 6.0 0.00 0.42 0.14 53 1012.3
20260905194100 93 173 2.0 6.0 0.00 0.42 0.14 51 1012.4
20260905194000 93 127 3.0 6.0 0.00 0.42 0.14 52 1012.4
20260905193859 93 175 2.0 6.0 0.00 0.42 0.14 54 1012.3
20260905193800 93 133 0.0 6.0 0.00 0.42 0.14 55 1012.4
20260905193700 93 181 1.0 6.0 0.00 0.42 0.14 55 1012.3
20260905193559 93 209 0.0 6.0 0.00 0.42 0.14 53 1012.3
20260905193502 93 26 0.0 6.0 0.00 0.42 0.14 55 1012.3
20260905193400 93 284 0.0 6.0 0.00 0.42 0.14 53 1012.4
20260905193300 93 224 0.0 6.0 0.00 0.42 0.14 54 1012.4
20260905193159 93 342 0.0 6.0 0.00 0.42 0.14 55 1012.4
20260905193059 93 101 0.0 6.0 0.00 0.42 0.14 54 1012.4
20260905193001 93 15 0.0 6.0 0.00 0.42 0.14 54 1012.4
20260905192859 93 15 0.0 6.0 0.00 0.42 0.14 56 1012.4
20260905192759 92 17 0.0 6.0 0.00 0.42 0.14 55 1012.5
20260905192701 92 15 1.0 6.0 0.00 0.42 0.14 53 1012.5
20260905192459 93 42 3.0 7.0 0.00 0.42 0.14 54 1012.6
20260905192400 93 179 1.0 7.0 0.00 0.42 0.14 53 1012.6
20260905192300 93 180 2.0 7.0 0.00 0.42 0.14 54 1012.6
20260905192203 93 248 2.0 7.0 0.00 0.42 0.14 56 1012.5
20260905192101 93 167 0.0 7.0 0.00 0.42 0.14 56 1012.6
20260905191959 93 98 1.0 7.0 0.00 0.42 0.14 53 1012.6
20260905191900 92 170 6.0 7.0 0.00 0.42 0.14 55 1012.6
20260905191802 92 132 3.0 4.0 0.00 0.42 0.14 55 1012.6
20260905191659 92 241 0.0 3.0 0.00 0.42 0.14 54 1012.7
20260905191600 92 213 1.0 3.0 0.00 0.42 0.14 54 1012.7
20260905191459 92 130 0.0 3.0 0.00 0.42 0.14 55 1012.7
20260905191400 92 323 1.0 3.0 0.00 0.42 0.14 55 1012.7
20260905191259 92 296 0.0 3.0 0.00 0.42 0.14 55 1012.7
20260905191159 92 338 0.0 3.0 0.00 0.42 0.14 55 1012.8
20260905191059 92 350 0.0 3.0 0.00 0.42 0.14 54 1012.7
20260905190859 92 247 0.0 3.0 0.00 0.42 0.14 53 1012.8
20260905190659 92 180 1.0 3.0 0.00 0.42 0.14 53 1012.8
20260905190600 92 290 0.0 3.0 0.00 0.42 0.14 54 1012.8
20260905190500 92 329 0.0 3.0 0.00 0.42 0.14 53 1012.8
20260905190401 92 317 0.0 3.0 0.00 0.42 0.14 54 1012.8
20260905190159 92 321 0.0 3.0 0.00 0.42 0.14 54 1013.0
20260905190059 92 178 1.0 2.0 0.00 0.42 0.14 53 1013.1
20260905190001 92 118 0.0 6.0 0.00 0.42 0.14 56 1013.0
20260905185859 92 186 0.0 6.0 0.00 0.42 0.14 55 1013.1
20260905185800 92 46 0.0 6.0 0.00 0.42 0.14 54 1013.2
20260905185559 92 184 0.0 6.0 0.00 0.42 0.14 56 1013.1
20260905185459 92 179 1.0 6.0 0.00 0.42 0.14 55 1013.1
20260905185400 92 223 1.0 6.0 0.00 0.42 0.14 55 1013.2
20260905185200 92 177 0.0 6.0 0.00 0.42 0.14 55 1013.3
20260905185058 92 5 0.0 4.0 0.00 0.42 0.14 56 1013.3
20260905184959 92 224 0.0 4.0 0.00 0.42 0.14 56 1013.3
20260905184859 92 26 0.0 4.0 0.00 0.42 0.14 57 1013.3
20260905184802 91 323 0.0 4.0 0.00 0.42 0.14 59 1013.3
20260905184659 91 329 0.0 4.0 0.00 0.42 0.14 57 1013.3
20260905184559 91 246 0.0 4.0 0.00 0.42 0.14 55 1013.3
20260905184459 91 246 0.0 4.0 0.00 0.42 0.14 54 1013.2
20260905184259 91 259 3.0 4.0 0.00 0.42 0.14 54 1013.3
20260905184200 91 206 0.0 4.0 0.00 0.42 0.14 54 1013.3
20260905184101 91 259 1.0 4.0 0.00 0.42 0.14 56 1013.3
20260905183959 91 277 1.0 4.0 0.00 0.42 0.14 55 1013.3
20260905183900 91 72 3.0 4.0 0.00 0.42 0.14 55 1013.4
20260905183759 91 93 0.0 4.0 0.00 0.42 0.14 55 1013.4
20260905183700 91 304 0.0 5.0 0.00 0.42 0.14 54 1013.3
20260905183559 91 186 0.0 5.0 0.00 0.42 0.14 55 1013.3
20260905183359 91 232 0.0 5.0 0.00 0.42 0.14 55 1013.4
20260905183302 91 196 0.0 5.0 0.00 0.42 0.14 55 1013.4
20260905183201 91 355 2.0 5.0 0.00 0.42 0.14 54 1013.4
20260905183100 91 256 0.0 5.0 0.00 0.42 0.14 55 1013.4
20260905182859 91 192 3.0 6.0 0.00 0.42 0.14 55 1013.5
20260905182759 91 62 1.0 6.0 0.00 0.42 0.14 55 1013.4
20260905182659 91 271 0.0 6.0 0.00 0.42 0.14 55 1013.4
20260905182600 91 322 0.0 6.0 0.00 0.42 0.14 55 1013.4
20260905182459 91 213 0.0 6.0 0.00 0.42 0.14 56 1013.4
20260905182359 91 345 1.0 6.0 0.00 0.42 0.14 54 1013.4
20260905182259 91 319 1.0 6.0 0.00 0.42 0.14 54 1013.3
20260905182201 91 173 6.0 6.0 0.00 0.42 0.14 55 1013.4
20260905182100 91 196 0.0 6.0 0.00 0.42 0.14 55 1013.5
20260905181959 91 177 3.0 6.0 0.00 0.42 0.14 55 1013.4
20260905181900 91 163 1.0 6.0 0.00 0.42 0.14 56 1013.4
20260905181759 90 184 0.0 6.0 0.00 0.42 0.14 56 1013.4
20260905181701 90 170 0.0 3.0 0.00 0.42 0.14 56 1013.4
20260905181501 90 339 1.0 3.0 0.00 0.42 0.14 57 1013.4
20260905181401 90 339 1.0 4.0 0.00 0.42 0.14 59 1013.4
20260905181159 90 56 1.0 4.0 0.00 0.42 0.14 57 1013.4
20260905181059 90 148 1.0 4.0 0.00 0.42 0.14 57 1013.5
20260905181000 90 249 1.0 4.0 0.00 0.42 0.14 58 1013.4
20260905180700 90 350 1.0 4.0 0.00 0.42 0.14 58 1013.4
20260905180600 90 175 0.0 4.0 0.00 0.42 0.14 57 1013.4
20260905180501 90 281 4.0 6.0 0.00 0.42 0.14 58 1013.4
20260905180259 89 146 0.0 6.0 0.00 0.42 0.14 57 1013.4
20260905180158 89 204 1.0 6.0 0.00 0.42 0.14 55 1013.4
20260905180058 89 242 1.0 6.0 0.00 0.42 0.14 58 1013.4
20260905175959 89 313 0.0 6.0 0.00 0.42 0.14 56 1013.3
20260905175759 89 338 1.0 6.0 0.00 0.42 0.14 56 1013.3
20260905175659 89 155 1.0 6.0 0.00 0.42 0.14 55 1013.3
20260905175558 89 330 0.0 6.0 0.00 0.42 0.14 57 1013.4
20260905175359 90 196 3.0 6.0 0.00 0.42 0.14 55 1013.4
20260905175202 90 185 3.0 6.0 0.00 0.42 0.14 56 1013.3
20260905175058 90 154 1.0 6.0 0.00 0.42 0.14 57 1013.3
20260905175000 90 202 4.0 7.0 0.00 0.42 0.14 56 1013.3
20260905174900 90 238 0.0 5.0 0.00 0.42 0.14 57 1013.4
20260905174800 90 342 3.0 5.0 0.00 0.42 0.14 56 1013.4
20260905174659 90 157 2.0 5.0 0.00 0.42 0.14 56 1013.4
20260905174600 90 202 3.0 5.0 0.00 0.42 0.14 56 1013.4
20260905174459 90 296 1.0 5.0 0.00 0.42 0.14 56 1013.3
20260905174400 90 290 2.0 5.0 0.00 0.42 0.14 57 1013.3
20260905174259 90 5 2.0 5.0 0.00 0.42 0.14 56 1013.3
20260905174159 90 173 2.0 5.0 0.00 0.42 0.14 57 1013.4
20260905174102 90 207 3.0 5.0 0.00 0.42 0.14 59 1013.3
20260905174002 89 198 0.0 5.0 0.00 0.42 0.14 58 1013.4
20260905173900 89 255 1.0 5.0 0.00 0.42 0.14 58 1013.3
20260905173801 89 312 0.0 5.0 0.00 0.42 0.14 57 1013.4
20260905173659 89 284 1.0 5.0 0.00 0.42 0.14 58 1013.4
20260905173600 89 294 2.0 4.0 0.00 0.42 0.14 56 1013.4
20260905173459 89 191 0.0 6.0 0.00 0.42 0.14 58 1013.5
20260905173359 89 152 0.0 6.0 0.00 0.42 0.14 58 1013.4
20260905173259 89 155 0.0 6.0 0.00 0.42 0.14 57 1013.4
20260905173200 89 257 2.0 6.0 0.00 0.42 0.14 56 1013.4
20260905173059 89 171 2.0 6.0 0.00 0.42 0.14 57 1013.4
20260905172859 89 165 4.0 6.0 0.00 0.42 0.14 59 1013.4
20260905172800 89 167 1.0 6.0 0.00 0.42 0.14 58 1013.4
20260905172701 89 186 1.0 6.0 0.00 0.42 0.14 58 1013.4
20260905172559 89 214 0.0 5.0 0.00 0.42 0.14 57 1013.5
20260905172459 89 270 0.0 5.0 0.00 0.42 0.14 57 1013.4
20260905172359 89 338 0.0 5.0 0.00 0.42 0.14 56 1013.4
20260905172300 89 198 1.0 5.0 0.00 0.42 0.14 57 1013.5
20260905172201 89 255 0.0 5.0 0.00 0.42 0.14 53 1013.5
20260905172059 89 82 1.0 5.0 0.00 0.42 0.14 54 1013.6
20260905172000 89 181 1.0 5.0 0.00 0.42 0.14 53 1013.6
20260905171859 89 182 5.0 6.0 0.00 0.42 0.14 54 1013.6
20260905171759 89 154 0.0 3.0 0.00 0.42 0.14 55 1013.6
20260905171659 89 253 1.0 3.0 0.00 0.42 0.14 55 1013.7
20260905171602 89 165 0.0 3.0 0.00 0.42 0.14 54 1013.6
20260905171459 89 173 2.0 2.0 0.00 0.42 0.14 54 1013.6
20260905171100 88 336 0.0 2.0 0.00 0.42 0.14 56 1013.7
20260905171002 88 347 0.0 4.0 0.00 0.42 0.14 56 1013.8
20260905170759 88 162 0.0 10.0 0.00 0.42 0.14 57 1013.7
20260905170559 88 314 0.0 10.0 0.00 0.42 0.14 56 1013.8
20260905170458 88 330 0.0 10.0 0.00 0.42 0.14 56 1013.8
20260905170359 88 317 0.0 10.0 0.00 0.42 0.14 55 1013.8
20260905170101 88 281 4.0 10.0 0.00 0.42 0.14 55 1013.8
20260905165959 88 250 2.0 10.0 0.00 0.42 0.14 55 1013.8
20260905165903 88 287 2.0 4.0 0.00 0.42 0.14 54 1013.8
20260905165758 88 289 1.0 4.0 0.00 0.42 0.14 55 1013.8
20260905165500 88 331 1.0 4.0 0.00 0.42 0.14 55 1013.8
20260905165400 88 154 1.0 4.0 0.00 0.42 0.14 55 1013.8
20260905165306 88 311 2.0 4.0 0.00 0.42 0.14 54 1014.0
20260905165159 88 190 2.0 4.0 0.00 0.42 0.14 55 1013.9
20260905165059 88 298 1.0 3.0 0.00 0.42 0.14 56 1013.8
20260905164959 88 250 1.0 4.0 0.00 0.42 0.14 57 1013.9
20260905164859 87 294 1.0 4.0 0.00 0.42 0.14 56 1013.8
20260905164800 87 348 0.0 6.0 0.00 0.42 0.14 56 1013.9
20260905164701 87 348 0.0 6.0 0.00 0.42 0.14 55 1013.9
20260905164602 87 148 0.0 6.0 0.00 0.42 0.14 57 1014.0
20260905164500 87 217 0.0 6.0 0.00 0.42 0.14 56 1014.0
20260905164359 87 168 0.0 6.0 0.00 0.42 0.14 56 1014.0
20260905164300 87 200 0.0 6.0 0.00 0.42 0.14 55 1014.1
20260905164159 87 315 0.0 6.0 0.00 0.42 0.14 55 1014.1
20260905164103 87 300 3.0 6.0 0.00 0.42 0.14 56 1014.2
20260905163900 87 158 2.0 6.0 0.00 0.42 0.14 54 1014.1
20260905163759 87 167 1.0 5.0 0.00 0.42 0.14 55 1014.3
20260905163659 87 261 2.0 5.0 0.00 0.42 0.14 55 1014.3
20260905163559 87 328 1.0 5.0 0.00 0.42 0.14 56 1014.3
20260905163500 87 313 2.0 6.0 0.00 0.42 0.14 55 1014.3
20260905163400 87 284 3.0 6.0 0.00 0.42 0.14 56 1014.3
20260905163259 87 182 4.0 6.0 0.00 0.42 0.14 54 1014.2
20260905163201 87 174 3.0 6.0 0.00 0.42 0.14 54 1014.3
20260905163059 87 12 1.0 6.0 0.00 0.42 0.14 55 1014.3
20260905163000 87 296 1.0 6.0 0.00 0.42 0.14 55 1014.3
20260905162900 87 286 1.0 6.0 0.00 0.42 0.14 56 1014.3
20260905162801 86 275 1.0 6.0 0.00 0.42 0.14 54 1014.3
20260905162659 86 186 5.0 6.0 0.00 0.42 0.14 56 1014.2
20260905162601 86 150 1.0 6.0 0.00 0.42 0.14 54 1014.2
20260905162501 86 313 1.0 4.0 0.00 0.42 0.14 57 1014.4
20260905162359 86 184 0.0 4.0 0.00 0.42 0.14 55 1014.3
20260905162259 86 244 0.0 4.0 0.00 0.42 0.14 55 1014.3
20260905162000 86 188 1.0 4.0 0.00 0.42 0.14 56 1014.2
20260905161901 86 182 1.0 6.0 0.00 0.42 0.14 57 1014.2
20260905161801 86 180 0.0 6.0 0.00 0.42 0.14 58 1014.2
20260905161658 86 360 0.0 6.0 0.00 0.42 0.14 56 1014.2
20260905161600 86 350 0.0 6.0 0.00 0.42 0.14 58 1014.2
20260905161400 85 248 1.0 6.0 0.00 0.42 0.14 56 1014.2
20260905161201 85 306 2.0 6.0 0.00 0.42 0.14 56 1014.0
20260905161100 85 183 2.0 6.0 0.00 0.42 0.14 57 1014.1
20260905160959 85 226 0.0 3.0 0.00 0.42 0.14 58 1014.1
20260905160859 85 219 0.0 4.0 0.00 0.42 0.14 58 1014.0
20260905160759 85 195 0.0 5.0 0.00 0.42 0.14 57 1014.1
20260905160601 85 300 0.0 5.0 0.00 0.42 0.14 57 1014.1
20260905160500 85 210 0.0 5.0 0.00 0.42 0.14 57 1014.1
20260905160400 85 304 0.0 5.0 0.00 0.42 0.14 58 1014.2
20260905160259 84 175 0.0 5.0 0.00 0.42 0.14 57 1014.1
20260905160159 84 328 0.0 5.0 0.00 0.42 0.14 58 1014.0
20260905160059 84 294 1.0 6.0 0.00 0.42 0.14 57 1014.1
20260905160001 84 246 1.0 6.0 0.00 0.42 0.14 57 1014.1
20260905155800 84 180 2.0 6.0 0.00 0.42 0.14 58 1014.2
20260905155559 84 188 2.0 6.0 0.00 0.42 0.14 58 1014.2
20260905155400 84 257 3.0 6.0 0.00 0.42 0.14 58 1014.2
20260905155301 84 209 0.0 6.0 0.00 0.42 0.14 59 1014.2
20260905155159 84 201 2.0 6.0 0.00 0.42 0.14 60 1014.2
20260905155100 84 196 1.0 5.0 0.00 0.42 0.14 59 1014.2
20260905154759 84 220 1.0 6.0 0.00 0.42 0.14 59 1014.3
20260905154659 84 217 2.0 6.0 0.00 0.42 0.14 59 1014.2
20260905154601 84 307 3.0 6.0 0.00 0.42 0.14 60 1014.2
20260905154359 84 213 4.0 6.0 0.00 0.42 0.14 58 1014.2
20260905154300 84 202 0.0 6.0 0.00 0.42 0.14 59 1014.2
20260905154158 84 171 5.0 6.0 0.00 0.42 0.14 60 1014.2
20260905154102 83 326 0.0 3.0 0.00 0.42 0.14 61 1014.1
20260905153900 83 175 1.0 4.0 0.00 0.42 0.14 60 1014.2
20260905153802 83 185 0.0 6.0 0.00 0.42 0.14 60 1014.1
20260905153659 83 187 1.0 6.0 0.00 0.42 0.14 61 1014.1
20260905153559 83 159 1.0 6.0 0.00 0.42 0.14 60 1014.1
20260905153500 83 153 1.0 6.0 0.00 0.42 0.14 59 1014.1
20260905153359 83 144 1.0 6.0 0.00 0.42 0.14 60 1014.1
20260905153300 83 177 0.0 6.0 0.00 0.42 0.14 60 1014.1
20260905153159 83 168 0.0 6.0 0.00 0.42 0.14 59 1014.1
20260905153100 83 126 0.0 6.0 0.00 0.42 0.14 61 1014.0
20260905153000 83 210 0.0 6.0 0.00 0.42 0.14 59 1014.0
20260905152901 83 175 6.0 6.0 0.00 0.42 0.14 60 1014.1
20260905152800 83 165 0.0 2.0 0.00 0.42 0.14 62 1014.1
20260905152659 83 257 0.0 2.0 0.00 0.42 0.14 61 1014.1
20260905152600 83 248 1.0 2.0 0.00 0.42 0.14 61 1014.2
20260905152458 83 133 0.0 2.0 0.00 0.42 0.14 60 1014.1
20260905152400 83 155 0.0 2.0 0.00 0.42 0.14 60 1014.2
20260905152200 83 267 0.0 2.0 0.00 0.42 0.14 61 1014.3
20260905152100 82 115 0.0 2.0 0.00 0.42 0.14 60 1014.3
20260905152002 82 323 2.0 2.0 0.00 0.42 0.14 61 1014.3
20260905151900 82 200 0.0 2.0 0.00 0.42 0.14 62 1014.4
20260905151800 82 204 0.0 2.0 0.00 0.42 0.14 61 1014.4
20260905151700 82 172 0.0 2.0 0.00 0.42 0.14 61 1014.4
20260905151302 82 186 0.0 2.0 0.00 0.42 0.14 61 1014.4
20260905151200 82 194 0.0 3.0 0.00 0.42 0.14 61 1014.4
20260905151103 81 194 0.0 3.0 0.00 0.42 0.14 62 1014.4
20260905150959 81 194 0.0 3.0 0.00 0.42 0.14 62 1014.3
20260905150900 81 227 0.0 3.0 0.00 0.42 0.14 62 1014.4
20260905150759 81 227 0.0 3.0 0.00 0.42 0.14 64 1014.4
20260905150559 81 202 1.0 3.0 0.00 0.42 0.14 64 1014.3
20260905150503 81 194 0.0 3.0 0.00 0.42 0.14 63 1014.3
20260905150401 80 194 0.0 3.0 0.00 0.42 0.14 62 1014.3
20260905150301 80 195 1.0 3.0 0.00 0.42 0.14 63 1014.4
20260905150059 80 112 1.0 3.0 0.00 0.42 0.14 65 1014.4
20260905150000 80 109 3.0 3.0 0.00 0.42 0.14 65 1014.4
20260905145900 80 99 1.0 3.0 0.00 0.42 0.14 65 1014.4
20260905145801 80 150 0.0 3.0 0.00 0.42 0.14 64 1014.4
20260905145659 80 207 2.0 3.0 0.00 0.42 0.14 65 1014.5
20260905145601 80 167 1.0 3.0 0.00 0.42 0.14 66 1014.4
20260905145459 79 119 1.0 5.0 0.00 0.42 0.14 66 1014.3
20260905145359 79 132 0.0 5.0 0.00 0.42 0.14 65 1014.3
20260905145259 79 92 3.0 8.0 0.00 0.42 0.14 65 1014.3
20260905145201 79 130 2.0 8.0 0.00 0.42 0.14 66 1014.3
20260905145100 79 154 2.0 8.0 0.00 0.42 0.14 67 1014.3
20260905144959 79 142 0.0 8.0 0.00 0.42 0.14 68 1014.3
20260905144901 79 175 0.0 8.0 0.00 0.42 0.14 67 1014.3
20260905144600 78 144 3.0 8.0 0.00 0.42 0.14 66 1014.3
20260905144502 78 163 5.0 8.0 0.00 0.42 0.14 68 1014.3
20260905144259 78 166 1.0 5.0 0.00 0.42 0.14 68 1014.2
20260905144202 78 153 0.0 5.0 0.00 0.42 0.14 67 1014.3
20260905144102 78 159 4.0 5.0 0.00 0.42 0.14 69 1014.3
20260905143900 78 117 0.0 5.0 0.00 0.42 0.14 67 1014.2
20260905143700 78 132 0.0 5.0 0.00 0.42 0.14 68 1014.2
20260905143559 78 151 3.0 5.0 0.00 0.42 0.14 69 1014.2
20260905143500 77 145 1.0 5.0 0.00 0.42 0.14 68 1014.1
20260905143400 77 178 2.0 5.0 0.00 0.42 0.14 69 1014.1
20260905143259 77 161 0.0 7.0 0.00 0.42 0.14 68 1014.3
20260905143158 77 156 2.0 8.0 0.00 0.42 0.14 68 1014.3
20260905142959 77 192 3.0 8.0 0.00 0.42 0.14 68 1014.3
20260905142901 77 175 2.0 8.0 0.00 0.42 0.14 69 1014.3
20260905142759 77 164 2.0 8.0 0.00 0.42 0.14 69 1014.3
20260905142500 77 189 2.0 8.0 0.00 0.42 0.14 69 1014.2
20260905142400 77 200 4.0 8.0 0.00 0.42 0.14 70 1014.2
20260905142301 77 162 1.0 4.0 0.00 0.42 0.14 70 1014.2
20260905142201 77 144 3.0 5.0 0.00 0.42 0.14 71 1014.2
20260905142001 77 186 2.0 6.0 0.00 0.42 0.14 72 1014.4
20260905141859 76 167 1.0 6.0 0.00 0.42 0.14 72 1014.3
20260905141559 76 146 2.0 6.0 0.00 0.42 0.14 72 1014.3
20260905141459 76 149 3.0 6.0 0.00 0.42 0.14 72 1014.4
20260905141400 76 134 3.0 6.0 0.00 0.42 0.14 72 1014.4
20260905141301 76 138 1.0 6.0 0.00 0.42 0.14 72 1014.5
20260905141200 76 187 2.0 6.0 0.00 0.42 0.14 72 1014.7
20260905141100 76 167 4.0 3.0 0.00 0.42 0.14 73 1014.6
20260905141001 75 128 0.0 5.0 0.00 0.42 0.14 72 1014.6
20260905140900 75 175 0.0 5.0 0.00 0.42 0.14 73 1014.6
20260905140800 75 63 1.0 5.0 0.00 0.42 0.14 74 1014.5
20260905140703 75 175 0.0 5.0 0.00 0.42 0.14 74 1014.5
20260905140600 75 175 0.0 5.0 0.00 0.42 0.14 74 1014.5
20260905140459 75 213 0.0 6.0 0.00 0.42 0.14 74 1014.6
20260905140259 75 126 1.0 6.0 0.00 0.42 0.14 74 1014.6
20260905140200 75 150 0.0 6.0 0.00 0.42 0.14 74 1014.6
20260905140001 75 165 2.0 6.0 0.00 0.42 0.14 75 1014.7
20260905135901 74 103 0.0 6.0 0.00 0.42 0.14 75 1014.6
20260905135800 74 167 1.0 6.0 0.00 0.42 0.14 75 1014.6
20260905135659 74 166 1.0 6.0 0.00 0.42 0.14 74 1014.7
20260905135600 74 146 2.0 6.0 0.00 0.42 0.14 75 1014.7
20260905135401 74 167 1.0 4.0 0.00 0.42 0.14 76 1014.7
20260905135200 74 160 2.0 4.0 0.00 0.42 0.14 77 1014.9
20260905135100 74 126 1.0 4.0 0.00 0.42 0.14 78 1014.9
20260905134959 74 80 1.0 4.0 0.00 0.42 0.14 78 1015.0
20260905134758 73 136 2.0 6.0 0.00 0.42 0.14 78 1015.0
20260905134700 73 151 0.0 6.0 0.00 0.42 0.14 78 1015.1
20260905134559 73 115 4.0 6.0 0.00 0.42 0.14 78 1015.1
20260905134459 73 161 0.0 6.0 0.00 0.42 0.14 78 1015.3
20260905134359 73 121 0.0 6.0 0.00 0.42 0.14 78 1015.3
20260905134300 73 125 0.0 6.0 0.00 0.42 0.14 79 1015.3
20260905134200 73 132 1.0 6.0 0.00 0.42 0.14 78 1015.5
20260905134100 73 173 2.0 6.0 0.00 0.42 0.14 79 1015.5
20260905134002 72 112 1.0 4.0 0.00 0.42 0.14 80 1015.5
20260905133859 72 151 1.0 4.0 0.00 0.42 0.14 80 1015.5
20260905133800 72 153 1.0 4.0 0.00 0.42 0.14 81 1015.6
20260905133700 72 135 1.0 4.0 0.00 0.42 0.14 81 1015.6
20260905133559 72 142 1.0 4.0 0.00 0.42 0.14 82 1015.8
20260905133500 72 67 2.0 4.0 0.00 0.42 0.14 82 1015.8
20260905133400 72 163 4.0 4.0 0.00 0.42 0.14 82 1015.8
20260905133300 71 103 0.0 4.0 0.00 0.42 0.14 82 1015.8
20260905133200 71 128 2.0 4.0 0.00 0.42 0.14 83 1015.9
20260905132959 71 144 1.0 4.0 0.00 0.42 0.14 84 1016.0
20260905132858 71 184 0.0 4.0 0.00 0.42 0.14 84 1016.0
20260905132757 71 184 0.0 4.0 0.00 0.42 0.14 84 1016.0
20260905132657 71 184 1.0 4.0 0.00 0.42 0.14 85 1016.1
20260905132459 71 153 0.0 4.0 0.00 0.42 0.14 86 1016.1
20260905132358 70 78 1.0 4.0 0.00 0.42 0.14 86 1016.0
20260905132301 70 150 0.0 3.0 0.00 0.42 0.14 85 1016.1
20260905132100 70 145 1.0 3.0 0.00 0.42 0.14 86 1016.1
20260905131958 70 214 2.0 4.0 0.00 0.42 0.14 86 1016.2
20260905131858 70 157 1.0 3.0 0.00 0.42 0.14 87 1016.2
20260905131758 70 130 1.0 1.0 0.00 0.42 0.14 87 1016.3
20260905131657 70 120 0.0 0.0 0.00 0.42 0.14 87 1016.3
20260905131558 70 126 0.0 0.0 0.00 0.42 0.14 87 1016.3
20260905131458 70 121 0.0 0.0 0.00 0.42 0.14 87 1016.3
20260905131358 70 133 0.0 0.0 0.00 0.42 0.14 87 1016.2
20260905131259 70 140 0.0 0.0 0.00 0.42 0.14 87 1016.3
20260905131158 70 140 0.0 0.0 0.00 0.42 0.14 88 1016.4
20260905131058 70 144 0.0 0.0 0.00 0.42 0.14 88 1016.3
20260905130957 69 144 0.0 0.0 0.00 0.42 0.14 88 1016.4
20260905130858 69 144 0.0 0.0 0.00 0.42 0.14 88 1016.5
20260905130658 69 282 0.0 0.0 0.00 0.42 0.14 88 1016.5
20260905130559 69 178 0.0 0.0 0.00 0.42 0.14 89 1016.5
20260905130458 69 325 0.0 0.0 0.00 0.42 0.14 89 1016.5
20260905130359 69 325 0.0 0.0 0.00 0.42 0.14 89 1016.5
20260905130300 69 325 0.0 1.0 0.00 0.42 0.14 89 1016.4
20260905130159 69 325 0.0 1.0 0.00 0.42 0.14 89 1016.4
20260905130002 69 227 0.0 1.0 0.01 0.42 0.14 89 1016.3
20260905125859 69 22 0.0 1.0 0.01 0.42 0.14 89 1016.2
20260905125759 69 22 0.0 1.0 0.01 0.42 0.14 89 1016.2
20260905125659 69 22 0.0 1.0 0.01 0.42 0.14 89 1016.2
20260905125402 69 22 1.0 1.0 0.01 0.42 0.14 89 1016.2
20260905125300 69 22 0.0 1.0 0.01 0.42 0.14 88 1016.2
20260905125158 69 22 0.0 1.0 0.01 0.42 0.14 88 1016.0
20260905125058 69 22 0.0 1.0 0.01 0.42 0.14 88 1016.0
20260905125000 69 22 1.0 1.0 0.02 0.42 0.14 88 1016.0
20260905124901 69 9 0.0 1.0 0.02 0.42 0.14 88 1016.0
20260905124800 69 355 0.0 1.0 0.02 0.42 0.14 88 1016.0
20260905124659 69 355 0.0 1.0 0.02 0.42 0.14 88 1015.9
20260905124601 69 355 0.0 1.0 0.02 0.42 0.14 89 1015.9
20260905124459 69 355 0.0 1.0 0.02 0.42 0.14 89 1015.8
20260905124359 69 355 0.0 1.0 0.02 0.42 0.14 89 1015.8
20260905124158 69 355 0.0 1.0 0.02 0.42 0.14 89 1015.8
20260905124101 69 355 0.0 1.0 0.02 0.42 0.14 88 1015.8
20260905123959 69 355 0.0 1.0 0.03 0.42 0.14 88 1015.9
20260905123859 69 355 0.0 1.0 0.03 0.42 0.14 88 1015.9
20260905123801 69 355 0.0 1.0 0.03 0.42 0.14 88 1015.9
20260905123659 69 355 0.0 0.0 0.03 0.42 0.14 88 1015.9
20260905123600 69 355 0.0 0.0 0.03 0.42 0.14 88 1015.8
20260905123502 69 355 0.0 0.0 0.03 0.42 0.14 88 1015.8
20260905123359 69 355 0.0 0.0 0.03 0.42 0.14 89 1015.8
20260905123259 69 355 0.0 1.0 0.04 0.42 0.14 88 1015.7
20260905123159 69 355 0.0 1.0 0.04 0.42 0.14 88 1015.8
20260905123059 69 355 0.0 1.0 0.04 0.42 0.14 88 1015.7
20260905123003 68 355 0.0 1.0 0.04 0.42 0.14 88 1015.8
20260905122759 68 355 0.0 1.0 0.04 0.42 0.14 88 1015.8
20260905122659 68 355 0.0 1.0 0.04 0.42 0.14 88 1015.8
20260905122601 68 355 0.0 1.0 0.04 0.42 0.14 88 1015.6
20260905122459 68 355 0.0 2.0 0.05 0.42 0.14 88 1015.6
20260905122359 68 355 0.0 2.0 0.05 0.42 0.14 88 1015.6
20260905122259 68 355 0.0 2.0 0.05 0.42 0.14 87 1015.6
20260905122159 68 355 0.0 2.0 0.05 0.42 0.14 87 1015.6
20260905122100 68 355 0.0 2.0 0.05 0.42 0.14 87 1015.6
20260905121959 68 355 0.0 2.0 0.05 0.42 0.14 87 1015.5
20260905121859 68 355 0.0 2.0 0.06 0.42 0.14 87 1015.6
20260905121800 68 355 0.0 3.0 0.06 0.42 0.14 87 1015.5
20260905121659 68 5 1.0 3.0 0.06 0.42 0.14 87 1015.5
20260905121558 68 164 0.0 3.0 0.06 0.42 0.14 87 1015.5
20260905121500 68 164 0.0 3.0 0.06 0.42 0.14 87 1015.5
20260905121400 68 164 0.0 3.0 0.06 0.42 0.14 87 1015.5
20260905121300 68 164 0.0 3.0 0.06 0.42 0.14 87 1015.5
20260905121200 68 164 0.0 3.0 0.07 0.42 0.14 87 1015.4
20260905121058 68 161 0.0 3.0 0.07 0.42 0.14 87 1015.5
20260905120959 68 161 2.0 4.0 0.07 0.42 0.14 87 1015.5
20260905120800 68 286 0.0 3.0 0.07 0.42 0.14 87 1015.4
20260905120659 68 348 0.0 3.0 0.08 0.42 0.14 87 1015.4
20260905120559 68 83 0.0 4.0 0.08 0.42 0.14 87 1015.4
20260905120459 68 46 0.0 4.0 0.08 0.42 0.14 87 1015.5
20260905120302 68 324 1.0 5.0 0.08 0.42 0.14 87 1015.4
20260905120100 68 18 2.0 8.0 0.08 0.41 0.13 87 1015.5
20260905115959 68 355 1.0 8.0 0.08 0.41 0.13 87 1015.4
20260905115859 68 43 1.0 8.0 0.08 0.41 0.13 87 1015.4
20260905115758 68 11 1.0 8.0 0.09 0.41 0.13 87 1015.4
20260905115558 68 331 2.0 8.0 0.09 0.41 0.13 87 1015.4
20260905115458 68 355 1.0 8.0 0.10 0.41 0.13 87 1015.4
20260905115357 68 360 2.0 8.0 0.10 0.41 0.13 87 1015.4
20260905115258 68 68 2.0 8.0 0.10 0.41 0.13 87 1015.4
20260905115158 68 342 4.0 6.0 0.10 0.41 0.13 87 1015.5
20260905115058 68 350 2.0 6.0 0.11 0.41 0.13 87 1015.5
20260905114959 68 350 3.0 5.0 0.10 0.40 0.12 87 1015.5
20260905114900 68 53 2.0 5.0 0.10 0.40 0.12 87 1015.6
20260905114658 68 315 2.0 5.0 0.11 0.40 0.12 87 1015.6
20260905114558 68 324 2.0 5.0 0.11 0.40 0.12 88 1015.7
20260905114359 68 19 4.0 5.0 0.12 0.40 0.12 88 1015.6
20260905114158 68 355 1.0 5.0 0.12 0.40 0.12 88 1015.6
20260905114058 68 18 1.0 5.0 0.11 0.39 0.11 88 1015.6
20260905113958 68 325 2.0 5.0 0.11 0.39 0.11 88 1015.6
20260905113858 68 335 3.0 5.0 0.11 0.39 0.11 88 1015.6
20260905113802 68 57 4.0 5.0 0.11 0.39 0.11 88 1015.6
20260905113301 68 330 2.0 5.0 0.10 0.38 0.10 88 1015.5
20260905113212 68 24 3.0 5.0 0.10 0.38 0.10 88 1015.5
20260905113114 68 341 1.0 5.0 0.10 0.38 0.10 88 1015.6
20260905113005 68 14 2.0 5.0 0.10 0.38 0.10 88 1015.6
20260905112907 68 343 0.0 5.0 0.10 0.38 0.10 88 1015.7
20260905112814 68 342 1.0 5.0 0.10 0.38 0.10 88 1015.8
20260905112709 67 21 0.0 5.0 0.10 0.38 0.10 88 1015.8
20260905112600 67 18 0.0 5.0 0.09 0.37 0.09 88 1015.8
20260905112257 67 334 2.0 4.0 0.09 0.37 0.09 88 1015.7
20260905112159 67 251 0.0 6.0 0.09 0.37 0.09 88 1015.7
20260905112057 67 355 1.0 6.0 0.09 0.37 0.09 88 1015.7
20260905111859 67 328 0.0 8.0 0.08 0.36 0.08 87 1015.7
20260905111759 67 21 0.0 8.0 0.08 0.36 0.08 88 1015.6
20260905111659 67 31 1.0 8.0 0.08 0.36 0.08 87 1015.7
20260905111558 68 22 0.0 8.0 0.08 0.36 0.08 87 1015.7
20260905111459 67 321 3.0 10.0 0.08 0.36 0.08 87 1015.8
20260905111400 68 34 3.0 10.0 0.08 0.36 0.08 87 1015.7
20260905111258 68 350 5.0 10.0 0.07 0.35 0.07 87 1015.7
20260905111059 68 128 1.0 10.0 0.07 0.35 0.07 87 1015.7
20260905110958 68 32 0.0 10.0 0.07 0.35 0.07 87 1015.6
20260905110858 68 5 3.0 10.0 0.07 0.35 0.07 87 1015.6
20260905110757 68 28 2.0 10.0 0.06 0.34 0.06 87 1015.6
20260905110659 68 12 3.0 10.0 0.06 0.34 0.06 87 1015.7
20260905110558 68 344 1.0 10.0 0.06 0.34 0.06 87 1015.7
20260905110458 68 324 4.0 11.0 0.06 0.34 0.06 86 1015.8
20260905110358 68 20 3.0 12.0 0.06 0.34 0.06 86 1015.9
20260905110300 68 348 5.0 15.0 0.05 0.33 0.05 86 1015.9
20260905110158 68 29 4.0 19.0 0.05 0.33 0.05 86 1015.8
20260905110058 68 26 5.0 19.0 0.05 0.33 0.05 86 1015.9
20260905105900 68 99 3.0 19.0 0.05 0.33 0.05 85 1015.8
20260905105759 68 355 5.0 19.0 0.04 0.32 0.04 85 1015.7
20260905105659 68 9 4.0 19.0 0.04 0.32 0.04 85 1015.6
20260905105601 69 355 5.0 19.0 0.04 0.32 0.04 84 1015.7
20260905105500 69 15 2.0 19.0 0.03 0.31 0.03 84 1015.6
20260905105400 69 39 14.0 18.0 0.03 0.31 0.03 84 1015.7
20260905105301 69 355 9.0 17.0 0.03 0.31 0.03 84 1015.9
20260905105159 69 29 6.0 17.0 0.03 0.31 0.03 84 1015.9
20260905105100 70 76 3.0 17.0 0.02 0.30 0.02 83 1015.9
20260905104959 70 345 9.0 17.0 0.02 0.30 0.02 83 1015.9
20260905104859 71 43 9.0 21.0 0.02 0.30 0.02 82 1016.1
20260905104800 71 348 8.0 21.0 0.01 0.29 0.01 82 1016.2
20260905104659 71 355 5.0 21.0 0.01 0.29 0.01 81 1016.4
20260905104559 71 69 5.0 21.0 0.01 0.29 0.01 81 1016.4
20260905104502 72 322 3.0 21.0 0.01 0.29 0.01 80 1016.4
20260905104401 72 26 3.0 21.0 0.00 0.28 0.00 79 1016.4
20260905104259 72 35 6.0 21.0 0.00 0.28 0.00 78 1016.3
20260905104200 72 5 9.0 21.0 0.00 0.28 0.00 79 1016.3
20260905104059 72 105 4.0 21.0 0.00 0.28 0.00 80 1016.3
20260905104000 73 314 9.0 18.0 0.00 0.28 0.00 80 1016.2
20260905103859 73 74 13.0 18.0 0.00 0.28 0.00 80 1015.9
20260905103759 73 337 4.0 20.0 0.00 0.28 0.00 79 1015.7
20260905103700 73 103 18.0 20.0 0.00 0.28 0.00 80 1015.4
20260905103559 73 328 8.0 20.0 0.00 0.28 0.00 80 1015.5
20260905103500 73 309 8.0 20.0 0.00 0.28 0.00 79 1015.2
20260905103400 73 39 5.0 20.0 0.00 0.28 0.00 79 1015.2
20260905103158 73 51 10.0 24.0 0.00 0.28 0.00 79 1015.3
20260905102900 74 52 14.0 24.0 0.00 0.28 0.00 79 1015.4
20260905102759 74 17 10.0 24.0 0.00 0.28 0.00 80 1015.3
20260905102701 74 316 8.0 24.0 0.00 0.28 0.00 79 1015.3
20260905102559 74 10 15.0 24.0 0.00 0.28 0.00 79 1015.3
20260905102501 74 72 15.0 24.0 0.00 0.28 0.00 81 1015.3
20260905102403 74 15 10.0 18.0 0.00 0.28 0.00 82 1015.3
20260905102258 74 310 15.0 18.0 0.00 0.28 0.00 83 1015.5
20260905102159 74 345 5.0 14.0 0.00 0.28 0.00 85 1015.3
20260905101958 74 10 7.0 14.0 0.00 0.28 0.00 86 1015.2
20260905101859 74 347 9.0 13.0 0.00 0.28 0.00 87 1015.2
20260905101700 74 15 11.0 11.0 0.00 0.28 0.00 87 1014.2
20260905101600 74 22 3.0 4.0 0.00 0.28 0.00 87 1013.9
20260905101500 74 14 0.0 1.0 0.00 0.28 0.00 87 1013.8
20260905101359 74 14 0.0 0.0 0.00 0.28 0.00 87 1013.7
20260905101257 74 14 0.0 0.0 0.00 0.28 0.00 87 1013.6
20260905101159 74 14 0.0 0.0 0.00 0.28 0.00 87 1013.5
20260905101100 74 14 0.0 0.0 0.00 0.28 0.00 87 1013.6
20260905100958 74 14 0.0 0.0 0.00 0.28 0.00 87 1013.6
20260905100857 74 14 0.0 0.0 0.00 0.28 0.00 88 1013.7
20260905100758 74 14 0.0 0.0 0.00 0.28 0.00 88 1013.6
20260905100658 74 14 0.0 0.0 0.00 0.28 0.00 88 1013.7
20260905100558 74 14 0.0 0.0 0.00 0.28 0.00 88 1013.7
20260905100457 74 14 0.0 0.0 0.00 0.28 0.00 88 1013.7
20260905100358 74 14 0.0 0.0 0.00 0.28 0.00 88 1013.8
20260905100258 73 14 0.0 0.0 0.00 0.28 0.00 88 1013.8
20260905100159 73 14 0.0 0.0 0.00 0.28 0.00 88 1013.7
20260905095958 73 14 0.0 0.0 0.00 0.28 0.00 88 1013.8
20260905095858 73 14 0.0 0.0 0.00 0.28 0.00 88 1013.8
20260905095758 73 14 0.0 0.0 0.00 0.28 0.00 88 1013.8
20260905095658 73 14 0.0 0.0 0.00 0.28 0.00 88 1013.8
20260905095458 73 14 0.0 0.0 0.00 0.28 0.00 88 1013.8
20260905095357 73 14 0.0 0.0 0.00 0.28 0.00 88 1013.7
20260905095258 73 14 0.0 0.0 0.00 0.28 0.00 88 1013.7
20260905095158 73 14 0.0 0.0 0.00 0.28 0.00 88 1013.7
20260905095058 73 14 0.0 0.0 0.00 0.28 0.00 88 1013.7
20260905094958 73 14 0.0 0.0 0.00 0.28 0.00 88 1013.7
20260905094858 73 14 0.0 0.0 0.00 0.28 0.00 88 1013.7
20260905094758 73 14 0.0 0.0 0.00 0.28 0.00 88 1013.7
20260905094658 73 14 0.0 0.0 0.00 0.28 0.00 88 1013.7
20260905094600 73 14 0.0 0.0 0.00 0.28 0.00 88 1013.7
20260905094358 73 14 0.0 0.0 0.00 0.28 0.00 88 1013.7
20260905094258 73 14 0.0 0.0 0.00 0.28 0.00 88 1013.7
20260905094100 73 14 0.0 0.0 0.00 0.28 0.00 88 1013.6
20260905093858 73 14 0.0 0.0 0.00 0.28 0.00 88 1013.7
20260905093658 73 14 0.0 0.0 0.00 0.28 0.00 88 1013.6
20260905093558 73 14 0.0 0.0 0.00 0.28 0.00 88 1013.6
20260905093459 73 14 0.0 0.0 0.00 0.28 0.00 88 1013.6
20260905093357 73 14 0.0 0.0 0.00 0.28 0.00 88 1013.6
20260905093259 73 13 0.0 0.0 0.00 0.28 0.00 88 1013.6
20260905093058 73 14 0.0 0.0 0.00 0.28 0.00 88 1013.5
20260905092957 73 14 0.0 0.0 0.00 0.28 0.00 88 1013.5
20260905092858 73 14 0.0 0.0 0.00 0.28 0.00 88 1013.5
20260905092658 73 14 0.0 0.0 0.00 0.28 0.00 88 1013.5
20260905092600 73 14 0.0 0.0 0.00 0.28 0.00 88 1013.5
20260905092159 73 14 0.0 0.0 0.00 0.28 0.00 87 1013.5
20260905091958 73 14 0.0 0.0 0.00 0.28 0.00 87 1013.4
20260905091857 73 14 0.0 0.0 0.00 0.28 0.00 87 1013.4
20260905091800 73 14 0.0 0.0 0.00 0.28 0.00 87 1013.4
20260905091657 73 14 0.0 0.0 0.00 0.28 0.00 87 1013.4
20260905091559 73 14 0.0 0.0 0.00 0.28 0.00 87 1013.4
20260905091500 73 14 0.0 0.0 0.00 0.28 0.00 87 1013.4
20260905091359 73 14 0.0 0.0 0.00 0.28 0.00 87 1013.4
20260905091158 73 14 0.0 0.0 0.00 0.28 0.00 87 1013.5
20260905091102 73 14 0.0 0.0 0.00 0.28 0.00 87 1013.4
20260905091000 73 14 0.0 0.0 0.00 0.28 0.00 87 1013.4
20260905090859 74 14 0.0 0.0 0.00 0.28 0.00 88 1013.3
20260905090702 73 14 0.0 0.0 0.00 0.28 0.00 87 1013.3
20260905090603 73 14 0.0 0.0 0.00 0.28 0.00 87 1013.3
20260905090459 73 14 0.0 0.0 0.00 0.28 0.00 87 1013.3
20260905090401 73 14 0.0 0.0 0.00 0.28 0.00 87 1013.4
20260905090259 73 14 0.0 0.0 0.00 0.28 0.00 87 1013.4
20260905090200 74 14 0.0 0.0 0.00 0.28 0.00 87 1013.5
20260905090059 74 14 0.0 0.0 0.00 0.28 0.00 87 1013.5
20260905085958 74 14 0.0 0.0 0.00 0.28 0.00 87 1013.5
20260905085858 74 14 0.0 0.0 0.00 0.28 0.00 87 1013.5
20260905085659 74 14 0.0 0.0 0.00 0.28 0.00 88 1013.5
20260905085558 74 14 0.0 0.0 0.00 0.28 0.00 88 1013.5
20260905085459 73 14 0.0 0.0 0.00 0.28 0.00 88 1013.5
20260905085400 73 14 0.0 0.0 0.00 0.28 0.00 87 1013.6
20260905085258 73 14 0.0 0.0 0.00 0.28 0.00 87 1013.5
20260905085058 73 14 0.0 0.0 0.00 0.28 0.00 87 1013.6
20260905084958 73 14 0.0 0.0 0.00 0.28 0.00 87 1013.4
20260905084857 73 14 0.0 0.0 0.00 0.28 0.00 87 1013.5
20260905084758 73 14 0.0 0.0 0.00 0.28 0.00 87 1013.5
20260905084657 73 14 0.0 0.0 0.00 0.28 0.00 87 1013.5
20260905084558 73 14 0.0 0.0 0.00 0.28 0.00 87 1013.6
20260905084458 73 14 0.0 0.0 0.00 0.28 0.00 87 1013.6
20260905084358 73 14 0.0 0.0 0.00 0.28 0.00 87 1013.5
20260905084259 73 14 0.0 0.0 0.00 0.28 0.00 87 1013.5
20260905084158 73 14 0.0 0.0 0.00 0.28 0.00 87 1013.5
20260905084100 73 14 0.0 0.0 0.00 0.28 0.00 87 1013.5
20260905083958 73 14 0.0 0.0 0.00 0.28 0.00 87 1013.5
20260905083858 73 14 0.0 0.0 0.00 0.28 0.00 87 1013.6
20260905083757 73 14 0.0 0.0 0.00 0.28 0.00 87 1013.6
20260905083658 73 14 0.0 0.0 0.00 0.28 0.00 87 1013.6
20260905083557 73 14 0.0 0.0 0.00 0.28 0.00 87 1013.7
20260905083458 73 14 0.0 0.0 0.00 0.28 0.00 87 1013.6
20260905083357 73 14 0.0 0.0 0.00 0.28 0.00 87 1013.6
20260905083300 73 14 0.0 0.0 0.00 0.28 0.00 87 1013.6
20260905083159 73 14 0.0 0.0 0.00 0.28 0.00 87 1013.7
20260905083059 73 14 0.0 0.0 0.00 0.28 0.00 87 1013.6
20260905082957 73 14 0.0 0.0 0.00 0.28 0.00 87 1013.5
20260905082859 73 14 0.0 0.0 0.00 0.28 0.00 87 1013.5
20260905082758 73 14 0.0 0.0 0.00 0.28 0.00 87 1013.5
20260905082557 73 14 0.0 0.0 0.00 0.28 0.00 87 1013.6
20260905082458 73 14 0.0 0.0 0.00 0.28 0.00 87 1013.6
20260905082357 73 14 0.0 0.0 0.00 0.28 0.00 87 1013.5
20260905082257 73 14 0.0 0.0 0.00 0.28 0.00 87 1013.5
20260905082159 73 14 0.0 0.0 0.00 0.28 0.00 87 1013.5
20260905082059 73 14 0.0 0.0 0.00 0.28 0.00 87 1013.5
20260905081900 73 14 0.0 0.0 0.00 0.28 0.00 87 1013.5
20260905081759 73 14 0.0 0.0 0.00 0.28 0.00 87 1013.4
20260905081701 73 14 0.0 0.0 0.00 0.28 0.00 87 1013.4
20260905081559 73 14 0.0 0.0 0.00 0.28 0.00 87 1013.4
20260905081458 73 14 0.0 0.0 0.00 0.28 0.00 87 1013.4
20260905081259 73 14 0.0 0.0 0.00 0.28 0.00 87 1013.4
20260905081203 73 14 0.0 0.0 0.00 0.28 0.00 87 1013.4
20260905081059 73 14 0.0 0.0 0.00 0.28 0.00 87 1013.4
20260905080859 73 14 0.0 0.0 0.00 0.28 0.00 87 1013.3
20260905080758 73 14 0.0 0.0 0.00 0.28 0.00 87 1013.3
20260905080657 73 14 0.0 0.0 0.00 0.28 0.00 87 1013.2
20260905080559 73 14 0.0 0.0 0.00 0.28 0.00 87 1013.3
20260905080458 73 14 0.0 0.0 0.00 0.28 0.00 87 1013.2
20260905080357 73 14 0.0 0.0 0.00 0.28 0.00 87 1013.3
20260905080300 73 14 0.0 0.0 0.00 0.28 0.00 87 1013.2
20260905080158 73 14 0.0 0.0 0.00 0.28 0.00 87 1013.8
20260905080059 73 14 0.0 0.0 0.00 0.28 0.00 87 1013.2
20260905080001 73 14 0.0 0.0 0.00 0.28 0.00 87 1013.2
20260905075859 73 14 0.0 0.0 0.00 0.28 0.00 87 1013.0
20260905075759 73 14 0.0 0.0 0.00 0.28 0.00 87 1013.0
20260905075600 73 14 0.0 0.0 0.00 0.28 0.00 87 1013.0
20260905075458 73 14 0.0 0.0 0.00 0.28 0.00 87 1013.0
20260905075358 73 14 0.0 0.0 0.00 0.28 0.00 87 1013.0
20260905075259 73 14 0.0 0.0 0.00 0.28 0.00 87 1013.1
20260905075159 73 14 0.0 0.0 0.00 0.28 0.00 87 1013.1
20260905075059 73 14 0.0 0.0 0.00 0.28 0.00 87 1013.0
20260905075000 73 14 0.0 0.0 0.00 0.28 0.00 87 1012.9
20260905074900 73 14 0.0 0.0 0.00 0.28 0.00 87 1012.9
20260905074758 73 14 0.0 0.0 0.00 0.28 0.00 87 1012.8
20260905074559 73 14 0.0 0.0 0.00 0.28 0.00 87 1012.9
20260905074500 73 14 0.0 0.0 0.00 0.28 0.00 87 1012.9
20260905074400 73 14 0.0 0.0 0.00 0.28 0.00 88 1012.8
20260905074259 73 14 0.0 0.0 0.00 0.28 0.00 88 1012.9
20260905074159 73 14 0.0 0.0 0.00 0.28 0.00 88 1012.9
20260905074059 73 14 0.0 0.0 0.00 0.28 0.00 88 1013.0
20260905074000 73 14 0.0 0.0 0.00 0.28 0.00 88 1013.0
20260905073859 73 14 0.0 0.0 0.00 0.28 0.00 88 1013.0
20260905073759 73 14 0.0 0.0 0.00 0.28 0.00 88 1013.0
20260905073702 73 14 0.0 0.0 0.00 0.28 0.00 88 1013.1
20260905073600 73 14 0.0 0.0 0.00 0.28 0.00 88 1013.0
20260905073501 73 14 0.0 0.0 0.00 0.28 0.00 88 1012.9
20260905073358 73 14 0.0 0.0 0.00 0.28 0.00 88 1013.0
20260905073300 73 14 0.0 0.0 0.00 0.28 0.00 88 1013.0
20260905073200 73 14 0.0 0.0 0.00 0.28 0.00 88 1013.0
20260905073059 73 14 0.0 0.0 0.00 0.28 0.00 88 1012.9
20260905073000 73 14 0.0 0.0 0.00 0.28 0.00 88 1013.0
20260905072901 73 14 0.0 0.0 0.00 0.28 0.00 88 1013.0
20260905072759 73 14 0.0 0.0 0.00 0.28 0.00 88 1013.0
20260905072659 73 14 0.0 0.0 0.00 0.28 0.00 88 1013.0
20260905072601 73 14 0.0 0.0 0.00 0.28 0.00 88 1013.1
20260905072500 73 14 0.0 0.0 0.00 0.28 0.00 88 1013.1
20260905072400 73 14 0.0 0.0 0.00 0.28 0.00 88 1013.1
20260905072159 73 14 0.0 0.0 0.00 0.28 0.00 89 1013.0
20260905072058 73 14 0.0 0.0 0.00 0.28 0.00 89 1013.0
20260905071859 73 14 0.0 0.0 0.00 0.28 0.00 89 1012.9
20260905071759 73 14 0.0 0.0 0.00 0.28 0.00 89 1012.9
20260905071659 73 14 0.0 0.0 0.00 0.28 0.00 89 1012.9
20260905071500 73 14 0.0 0.0 0.00 0.28 0.00 89 1012.9
20260905071359 73 14 0.0 0.0 0.00 0.28 0.00 89 1012.9
20260905071300 73 14 0.0 0.0 0.00 0.28 0.00 89 1012.9
20260905071200 73 13 0.0 0.0 0.00 0.28 0.00 89 1012.9
20260905071058 73 14 0.0 0.0 0.00 0.28 0.00 89 1012.9
20260905070659 73 14 0.0 0.0 0.00 0.28 0.00 89 1013.0
20260905070559 73 14 0.0 0.0 0.00 0.28 0.00 89 1013.0
20260905070500 73 14 0.0 0.0 0.00 0.28 0.00 89 1013.0
20260905070401 73 14 0.0 0.0 0.00 0.28 0.00 89 1013.0
20260905070301 73 14 0.0 0.0 0.00 0.28 0.00 89 1013.0
20260905070101 73 14 0.0 0.0 0.00 0.28 0.00 89 1013.0
20260905065958 73 14 0.0 0.0 0.00 0.28 0.00 89 1013.0
20260905065759 73 14 0.0 0.0 0.00 0.28 0.00 89 1013.0
20260905065659 73 14 0.0 0.0 0.00 0.28 0.00 89 1013.0
20260905065600 73 14 0.0 0.0 0.00 0.28 0.00 89 1013.0
20260905065401 73 14 0.0 0.0 0.00 0.28 0.00 89 1013.1
20260905065158 73 14 0.0 0.0 0.00 0.28 0.00 89 1013.0
20260905065001 73 14 0.0 0.0 0.00 0.28 0.00 89 1013.1
20260905064859 73 14 0.0 0.0 0.00 0.28 0.00 89 1013.2
20260905064800 73 14 0.0 0.0 0.00 0.28 0.00 90 1013.1
20260905064659 73 14 0.0 0.0 0.00 0.28 0.00 89 1013.2
20260905064559 73 14 0.0 0.0 0.00 0.28 0.00 90 1013.2
20260905064459 73 14 0.0 0.0 0.00 0.28 0.00 90 1013.2
20260905064358 73 14 0.0 0.0 0.00 0.28 0.00 90 1013.3
20260905064258 73 14 0.0 0.0 0.00 0.28 0.00 90 1013.3
20260905064159 73 14 0.0 0.0 0.00 0.28 0.00 90 1013.3
20260905064058 73 14 0.0 0.0 0.00 0.28 0.00 89 1013.3
20260905063959 73 14 0.0 0.0 0.00 0.28 0.00 89 1013.3
20260905063900 73 14 0.0 0.0 0.00 0.28 0.00 89 1013.3
20260905063758 73 14 0.0 0.0 0.00 0.28 0.00 89 1013.4
20260905063700 73 14 0.0 0.0 0.00 0.28 0.00 89 1013.3
20260905063557 73 14 0.0 0.0 0.00 0.28 0.00 89 1013.4
20260905063258 73 14 0.0 0.0 0.00 0.28 0.00 90 1013.4
20260905063159 73 14 0.0 0.0 0.00 0.28 0.00 90 1013.4
20260905062958 73 14 0.0 0.0 0.00 0.28 0.00 90 1013.4
20260905062858 73 14 0.0 0.0 0.00 0.28 0.00 90 1013.5
20260905062758 73 14 0.0 0.0 0.00 0.28 0.00 90 1013.6
20260905062658 73 14 0.0 0.0 0.00 0.28 0.00 90 1013.5
20260905062558 73 14 0.0 0.0 0.00 0.28 0.00 90 1013.6
20260905062500 73 14 0.0 0.0 0.00 0.28 0.00 90 1013.6
20260905062359 73 14 0.0 0.0 0.00 0.28 0.00 90 1013.6
20260905062258 73 14 0.0 0.0 0.00 0.28 0.00 90 1013.6
20260905062158 73 14 0.0 0.0 0.00 0.28 0.00 90 1013.6
20260905061958 73 14 0.0 0.0 0.00 0.28 0.00 90 1013.6
20260905061757 73 14 0.0 0.0 0.00 0.28 0.00 90 1013.6
20260905061658 73 14 0.0 0.0 0.00 0.28 0.00 90 1013.6
20260905061559 73 14 0.0 0.0 0.00 0.28 0.00 90 1013.7
20260905061457 73 14 0.0 0.0 0.00 0.28 0.00 90 1013.6
20260905061359 73 14 0.0 0.0 0.00 0.28 0.00 90 1013.7
20260905061258 73 14 0.0 0.0 0.00 0.28 0.00 90 1013.7
20260905061159 73 13 0.0 0.0 0.00 0.28 0.00 90 1013.6
20260905061058 73 14 0.0 0.0 0.00 0.28 0.00 90 1013.7
20260905060958 73 14 0.0 0.0 0.00 0.28 0.00 90 1013.7
20260905060858 74 14 0.0 0.0 0.00 0.28 0.00 90 1013.7
20260905060758 74 14 0.0 0.0 0.00 0.28 0.00 90 1013.7
20260905060658 74 14 0.0 0.0 0.00 0.28 0.00 90 1013.7
20260905060558 73 14 0.0 0.0 0.00 0.28 0.00 90 1013.7
20260905060358 74 13 0.0 0.0 0.00 0.28 0.00 90 1013.7
20260905060258 74 14 0.0 0.0 0.00 0.28 0.00 90 1013.7
20260905060157 74 14 0.0 0.0 0.00 0.28 0.00 90 1013.7